FJI392 VHHH-NFFN

Flight info

Callsign FJI392
Flight time 9h 32m
Altitude 35000
Route DALOL DCT NOMAN M501 LIMLE DCT 14N133E 10N140E 06N146E 02N152E DCT ADBON DCT 04S160E 08S164E DCT KAPNO DCT TAVER DCT ISMOP B452 NN
Aircraft A332/H-SDE3GHIJ2J3J5M1RVWXY/LB2D1

Departure

Time 2026-05-04 17:41
Airport Hong Kong International Airport (VHHH)

Arrival

Time 2026-05-05 03:13
Airport Nadi International Airport (NFFN)
Time Latitude Longitude Altitude Speed Heading
2026-05-04 17:13 22.31071 113.92556 36 ft 0 kts 116°
2026-05-04 17:14 22.31070 113.92558 36 ft 0 kts 115°
2026-05-04 17:29 22.31074 113.92549 35 ft 4 kts 115°
2026-05-04 17:30 22.31108 113.92480 34 ft 4 kts 160°
2026-05-04 17:31 22.31152 113.92493 32 ft 1 kts 206°
2026-05-04 17:33 22.31140 113.92487 35 ft 5 kts 206°
2026-05-04 17:34 22.30953 113.92391 36 ft 12 kts 205°
2026-05-04 17:34 22.30879 113.92352 36 ft 12 kts 207°
2026-05-04 17:35 22.30670 113.92371 36 ft 11 kts 177°
2026-05-04 17:35 22.30585 113.92226 36 ft 16 kts 250°
2026-05-04 17:35 22.30541 113.92094 36 ft 21 kts 250°
2026-05-04 17:36 22.30491 113.91932 36 ft 25 kts 251°
2026-05-04 17:36 22.30430 113.91745 36 ft 28 kts 251°
2026-05-04 17:36 22.30366 113.91546 36 ft 28 kts 250°
2026-05-04 17:36 22.30303 113.91350 36 ft 27 kts 251°
2026-05-04 17:37 22.30241 113.91158 36 ft 27 kts 251°
2026-05-04 17:37 22.30181 113.90972 36 ft 26 kts 250°
2026-05-04 17:37 22.30123 113.90789 36 ft 25 kts 251°
2026-05-04 17:37 22.30065 113.90611 36 ft 25 kts 250°
2026-05-04 17:38 22.30009 113.90438 36 ft 24 kts 251°
2026-05-04 17:38 22.29954 113.90269 36 ft 24 kts 250°
2026-05-04 17:38 22.29900 113.90104 36 ft 23 kts 251°
2026-05-04 17:38 22.29849 113.89945 36 ft 22 kts 250°
2026-05-04 17:39 22.29692 113.89903 34 ft 14 kts 161°
2026-05-04 17:39 22.29668 113.89966 34 ft 7 kts 63°
2026-05-04 17:39 22.29692 113.90028 34 ft 14 kts 70°
2026-05-04 17:40 22.29756 113.90227 34 ft 52 kts 70°
2026-05-04 17:40 22.29940 113.90795 35 ft 107 kts 71°
2026-05-04 17:40 22.30242 113.91734 36 ft 156 kts 70°
2026-05-04 17:40 22.30641 113.92933 406 ft 174 kts 71°
2026-05-04 17:41 22.31040 113.94150 1249 ft 170 kts 72°
2026-05-04 17:41 22.31422 113.95352 1875 ft 176 kts 73°
2026-05-04 17:41 22.31844 113.96673 2140 ft 196 kts 72°
2026-05-04 17:41 22.32312 113.98121 2395 ft 215 kts 72°
2026-05-04 17:42 22.32829 113.99724 2665 ft 234 kts 72°
2026-05-04 17:42 22.33375 114.01411 3143 ft 243 kts 73°
2026-05-04 17:42 22.33784 114.03222 3548 ft 253 kts 87°
2026-05-04 17:42 22.33618 114.05119 4018 ft 258 kts 109°
2026-05-04 17:43 22.32770 114.06818 4532 ft 260 kts 133°
2026-05-04 17:43 22.31375 114.08044 5122 ft 259 kts 153°
2026-05-04 17:43 22.29735 114.08898 5623 ft 267 kts 150°
2026-05-04 17:43 22.28221 114.10080 6108 ft 276 kts 144°
2026-05-04 17:44 22.26673 114.11353 6645 ft 282 kts 144°
2026-05-04 17:44 22.25104 114.12639 7219 ft 285 kts 145°
2026-05-04 17:44 22.23511 114.13923 7837 ft 287 kts 146°
2026-05-04 17:44 22.21902 114.15206 8496 ft 288 kts 146°
2026-05-04 17:45 22.20282 114.16489 9137 ft 290 kts 146°
2026-05-04 17:45 22.18644 114.17781 9756 ft 293 kts 146°
2026-05-04 17:45 22.16982 114.19088 10264 ft 300 kts 147°
2026-05-04 17:45 22.15277 114.20427 10513 ft 315 kts 147°
2026-05-04 17:46 22.13467 114.21847 10750 ft 330 kts 148°
2026-05-04 17:46 22.11569 114.23334 10972 ft 344 kts 147°
2026-05-04 17:46 22.09592 114.24886 11180 ft 359 kts 147°
2026-05-04 17:46 22.07539 114.26496 11460 ft 370 kts 146°
2026-05-04 17:47 22.05443 114.28141 11892 ft 375 kts 147°
2026-05-04 17:47 22.03320 114.29805 12386 ft 379 kts 147°
2026-05-04 17:47 22.01176 114.31485 12868 ft 383 kts 147°
2026-05-04 17:47 21.99011 114.33181 13352 ft 387 kts 147°
2026-05-04 17:48 21.96850 114.34872 13846 ft 390 kts 146°
2026-05-04 17:48 21.94650 114.36594 14290 ft 393 kts 147°
2026-05-04 17:48 21.92426 114.38333 14698 ft 397 kts 147°
2026-05-04 17:48 21.90175 114.40092 15065 ft 402 kts 147°
2026-05-04 17:49 21.87910 114.41869 15483 ft 405 kts 146°
2026-05-04 17:49 21.85810 114.43929 15951 ft 412 kts 133°
2026-05-04 17:49 21.84302 114.46575 16386 ft 421 kts 114°
2026-05-04 17:49 21.83374 114.49581 16796 ft 426 kts 108°
2026-05-04 17:50 21.82598 114.52631 17192 ft 430 kts 107°
2026-05-04 17:50 21.81821 114.55747 17597 ft 433 kts 107°
2026-05-04 17:50 21.81030 114.58884 17975 ft 436 kts 107°
2026-05-04 17:50 21.80224 114.62043 18351 ft 439 kts 107°
2026-05-04 17:51 21.79410 114.65214 18688 ft 441 kts 107°
2026-05-04 17:51 21.78589 114.68396 19040 ft 443 kts 107°
2026-05-04 17:51 21.77761 114.71595 19337 ft 446 kts 107°
2026-05-04 17:51 21.76925 114.74822 19635 ft 449 kts 108°
2026-05-04 17:52 21.76082 114.78068 19932 ft 452 kts 108°
2026-05-04 17:52 21.75181 114.81261 20234 ft 453 kts 112°
2026-05-04 17:52 21.73863 114.84329 20532 ft 451 kts 123°
2026-05-04 17:52 21.72039 114.87052 20830 ft 449 kts 134°
2026-05-04 17:53 21.69951 114.89547 21141 ft 449 kts 137°
2026-05-04 17:53 21.67753 114.91945 21429 ft 451 kts 139°
2026-05-04 17:53 21.65501 114.94298 21725 ft 453 kts 140°
2026-05-04 17:53 21.63222 114.96649 22023 ft 455 kts 140°
2026-05-04 17:54 21.60933 114.99016 22305 ft 458 kts 140°
2026-05-04 17:54 21.58642 115.01406 22594 ft 460 kts 140°
2026-05-04 17:54 21.56349 115.03815 22895 ft 462 kts 139°
2026-05-04 17:54 21.54082 115.06211 23190 ft 464 kts 139°
2026-05-04 17:55 21.51774 115.08657 23476 ft 467 kts 139°
2026-05-04 17:55 21.49461 115.11112 23731 ft 469 kts 139°
2026-05-04 17:55 21.47134 115.13581 23969 ft 471 kts 139°
2026-05-04 17:55 21.44794 115.16062 24208 ft 473 kts 139°
2026-05-04 17:56 21.42448 115.18548 24449 ft 475 kts 139°
2026-05-04 17:56 21.40090 115.21046 24686 ft 477 kts 139°
2026-05-04 17:56 21.37724 115.23549 24976 ft 478 kts 139°
2026-05-04 17:56 21.35386 115.26022 25224 ft 480 kts 139°
2026-05-04 17:57 21.33002 115.28542 25459 ft 482 kts 139°
2026-05-04 17:57 21.30610 115.31068 25698 ft 484 kts 139°
2026-05-04 17:57 21.28204 115.33607 25934 ft 486 kts 139°
2026-05-04 17:57 21.25793 115.36152 26210 ft 487 kts 139°
2026-05-04 17:58 21.23376 115.38702 26456 ft 489 kts 139°
2026-05-04 17:58 21.20949 115.41260 26686 ft 491 kts 140°
2026-05-04 17:58 21.18541 115.43798 26910 ft 493 kts 140°
2026-05-04 17:58 21.16093 115.46376 27154 ft 495 kts 140°
2026-05-04 17:59 21.13633 115.48966 27356 ft 497 kts 140°
2026-05-04 17:59 21.11167 115.51560 27601 ft 498 kts 140°
2026-05-04 17:59 21.06203 115.56780 28054 ft 502 kts 140°
2026-05-04 18:00 21.03704 115.59405 28266 ft 504 kts 140°
2026-05-04 18:00 21.01198 115.62037 28491 ft 506 kts 140°
2026-05-04 18:00 20.98718 115.64639 28701 ft 507 kts 140°
2026-05-04 18:00 20.96193 115.67289 28965 ft 508 kts 140°
2026-05-04 18:01 20.93666 115.69939 29184 ft 510 kts 140°
2026-05-04 18:01 20.91129 115.72598 29394 ft 512 kts 140°
2026-05-04 18:01 20.88586 115.75262 29585 ft 513 kts 140°
2026-05-04 18:02 20.83477 115.80610 30107 ft 514 kts 140°
2026-05-04 18:02 20.80923 115.83283 30348 ft 513 kts 140°
2026-05-04 18:02 20.78402 115.85919 30552 ft 514 kts 140°
2026-05-04 18:02 20.75849 115.88587 30755 ft 514 kts 140°
2026-05-04 18:03 20.73287 115.91263 30976 ft 515 kts 140°
2026-05-04 18:03 20.70729 115.93934 31191 ft 515 kts 140°
2026-05-04 18:03 20.68166 115.96609 31395 ft 515 kts 140°
2026-05-04 18:03 20.65613 115.99272 31745 ft 512 kts 140°
2026-05-04 18:04 20.63067 116.01927 31999 ft 511 kts 140°
2026-05-04 18:04 20.60522 116.04578 32165 ft 512 kts 140°
2026-05-04 18:04 20.55448 116.09860 32569 ft 513 kts 140°
2026-05-04 18:05 20.52892 116.12518 32771 ft 513 kts 140°
2026-05-04 18:05 20.50335 116.15176 32980 ft 514 kts 140°
2026-05-04 18:05 20.47774 116.17837 33188 ft 514 kts 140°
2026-05-04 18:05 20.45212 116.20498 33389 ft 514 kts 140°
2026-05-04 18:06 20.40084 116.25821 33777 ft 515 kts 140°
2026-05-04 18:06 20.37519 116.28482 34009 ft 514 kts 140°
2026-05-04 18:06 20.34995 116.31099 34213 ft 513 kts 140°
2026-05-04 18:07 20.32432 116.33755 34393 ft 513 kts 140°
2026-05-04 18:07 20.29884 116.36394 34673 ft 510 kts 140°
2026-05-04 18:07 20.27345 116.39024 34923 ft 508 kts 140°
2026-05-04 18:07 20.24808 116.41647 34960 ft 509 kts 140°
2026-05-04 18:08 20.19718 116.46907 34961 ft 510 kts 140°
2026-05-04 18:08 20.14629 116.52162 34963 ft 510 kts 140°
2026-05-04 18:09 20.04474 116.62637 34964 ft 510 kts 139°
2026-05-04 18:10 19.99808 116.68330 34959 ft 516 kts 124°
2026-05-04 18:10 19.96386 116.75001 34957 ft 519 kts 118°
2026-05-04 18:11 19.93230 116.81913 34957 ft 520 kts 117°
2026-05-04 18:11 19.90115 116.88849 34957 ft 520 kts 117°
2026-05-04 18:12 19.86971 116.95772 34957 ft 520 kts 118°
2026-05-04 18:12 19.83809 117.02672 34949 ft 519 kts 118°
2026-05-04 18:13 19.80659 117.09520 34952 ft 519 kts 118°
2026-05-04 18:14 19.75902 117.19851 34948 ft 519 kts 118°
2026-05-04 18:14 19.72726 117.26739 34949 ft 519 kts 118°
2026-05-04 18:15 19.66394 117.40451 34950 ft 519 kts 118°
2026-05-04 18:16 19.63215 117.47322 34948 ft 519 kts 118°
2026-05-04 18:16 19.60031 117.54194 34949 ft 519 kts 118°
2026-05-04 18:17 19.55258 117.64482 34948 ft 518 kts 118°
2026-05-04 18:18 19.50501 117.74717 34953 ft 518 kts 118°
2026-05-04 18:18 19.47313 117.81566 34942 ft 518 kts 118°
2026-05-04 18:19 19.42533 117.91819 34945 ft 517 kts 118°
2026-05-04 18:19 19.39366 117.98602 34944 ft 517 kts 118°
2026-05-04 18:20 19.36173 118.05433 34943 ft 517 kts 118°
2026-05-04 18:20 19.32979 118.12259 34940 ft 517 kts 119°
2026-05-04 18:21 19.29805 118.19033 34934 ft 517 kts 119°
2026-05-04 18:21 19.26611 118.25840 34935 ft 517 kts 119°
2026-05-04 18:22 19.23411 118.32653 34935 ft 517 kts 119°
2026-05-04 18:22 19.20206 118.39468 34938 ft 517 kts 119°
2026-05-04 18:23 19.17004 118.46269 34934 ft 516 kts 119°
2026-05-04 18:23 19.13824 118.53016 34933 ft 516 kts 119°
2026-05-04 18:24 19.10614 118.59818 34931 ft 516 kts 119°
2026-05-04 18:24 19.07407 118.66606 34920 ft 516 kts 119°
2026-05-04 18:25 19.04196 118.73395 34922 ft 516 kts 119°
2026-05-04 18:25 19.00983 118.80179 34928 ft 516 kts 119°
2026-05-04 18:26 18.97792 118.86911 34928 ft 516 kts 119°
2026-05-04 18:26 18.94579 118.93680 34924 ft 516 kts 119°
2026-05-04 18:27 18.91361 119.00452 34916 ft 516 kts 119°
2026-05-04 18:27 18.88142 119.07218 34919 ft 516 kts 119°
2026-05-04 18:28 18.84940 119.13940 34914 ft 516 kts 119°
2026-05-04 18:28 18.81717 119.20700 34914 ft 516 kts 119°
2026-05-04 18:29 18.78490 119.27461 34911 ft 516 kts 119°
2026-05-04 18:29 18.75264 119.34212 34908 ft 515 kts 119°
2026-05-04 18:30 18.70437 119.44297 34908 ft 516 kts 119°
2026-05-04 18:31 18.67202 119.51048 34901 ft 516 kts 119°
2026-05-04 18:31 18.63967 119.57792 34899 ft 515 kts 119°
2026-05-04 18:32 18.60729 119.64533 34900 ft 515 kts 119°
2026-05-04 18:32 18.57509 119.71229 34901 ft 515 kts 119°
2026-05-04 18:33 18.54268 119.77960 34892 ft 515 kts 119°
2026-05-04 18:33 18.51028 119.84683 34894 ft 514 kts 119°
2026-05-04 18:34 18.47789 119.91395 34892 ft 514 kts 119°
2026-05-04 18:34 18.44569 119.98061 34887 ft 514 kts 119°
2026-05-04 18:35 18.41325 120.04768 34887 ft 514 kts 119°
2026-05-04 18:35 18.38078 120.11476 34891 ft 514 kts 119°
2026-05-04 18:36 18.34827 120.18183 34882 ft 514 kts 119°
2026-05-04 18:36 18.31599 120.24837 34879 ft 514 kts 119°
2026-05-04 18:37 18.28343 120.31539 34880 ft 514 kts 119°
2026-05-04 18:37 18.25085 120.38240 34882 ft 514 kts 119°
2026-05-04 18:38 18.21829 120.44929 34881 ft 514 kts 119°
2026-05-04 18:38 18.18682 120.51631 34884 ft 516 kts 113°
2026-05-04 18:39 18.16729 120.58900 34881 ft 518 kts 104°
2026-05-04 18:39 18.15221 120.66315 34888 ft 519 kts 102°
2026-05-04 18:40 18.13793 120.73760 34894 ft 519 kts 102°
2026-05-04 18:40 18.12595 120.79942 34922 ft 519 kts 102°
2026-05-04 18:41 18.10892 120.88583 34940 ft 519 kts 103°
2026-05-04 18:41 18.09413 120.96014 34949 ft 520 kts 103°
2026-05-04 18:42 18.07933 121.03443 34953 ft 519 kts 103°
2026-05-04 18:42 18.06449 121.10873 34968 ft 520 kts 103°
2026-05-04 18:43 18.04972 121.18252 34966 ft 520 kts 103°
2026-05-04 18:43 18.03481 121.25684 34967 ft 520 kts 103°
2026-05-04 18:44 18.01988 121.33114 34956 ft 520 kts 103°
2026-05-04 18:44 18.00747 121.39281 34959 ft 519 kts 103°
2026-05-04 18:45 17.99251 121.46704 34943 ft 519 kts 103°
2026-05-04 18:45 17.97508 121.55326 34942 ft 519 kts 103°
2026-05-04 18:46 17.96007 121.62736 34940 ft 519 kts 103°
2026-05-04 18:46 17.94757 121.68892 34938 ft 519 kts 103°
2026-05-04 18:47 17.93006 121.77504 34945 ft 519 kts 103°
2026-05-04 18:47 17.91741 121.83709 34945 ft 519 kts 103°
2026-05-04 18:48 17.90240 121.91064 34946 ft 518 kts 103°
2026-05-04 18:48 17.88729 121.98452 34947 ft 518 kts 103°
2026-05-04 18:49 17.86967 122.07049 34948 ft 518 kts 103°
2026-05-04 18:49 17.85695 122.13241 34954 ft 518 kts 103°
2026-05-04 18:50 17.84187 122.20570 34952 ft 517 kts 103°
2026-05-04 18:50 17.82664 122.27950 34949 ft 517 kts 103°
2026-05-04 18:51 17.81139 122.35326 34941 ft 517 kts 103°
2026-05-04 18:51 17.79612 122.42697 34941 ft 516 kts 103°
2026-05-04 18:52 17.78096 122.49998 34939 ft 516 kts 103°
2026-05-04 18:52 17.76567 122.57351 34936 ft 516 kts 103°
2026-05-04 18:53 17.75036 122.64698 34933 ft 516 kts 103°
2026-05-04 18:53 17.73505 122.72031 34932 ft 514 kts 103°
2026-05-04 18:54 17.71984 122.79301 34933 ft 514 kts 103°
2026-05-04 18:54 17.70450 122.86615 34930 ft 514 kts 103°
2026-05-04 18:55 17.68914 122.93929 34933 ft 513 kts 103°
2026-05-04 18:55 17.66609 123.04879 34930 ft 512 kts 103°
2026-05-04 18:56 17.65082 123.12118 34933 ft 512 kts 103°
2026-05-04 18:56 17.63541 123.19402 34933 ft 512 kts 103°
2026-05-04 18:57 17.62000 123.26677 34930 ft 511 kts 103°
2026-05-04 18:57 17.60456 123.33954 34931 ft 511 kts 103°
2026-05-04 18:58 17.58921 123.41174 34930 ft 511 kts 103°
2026-05-04 18:58 17.57372 123.48445 34931 ft 511 kts 103°
2026-05-04 18:59 17.55822 123.55710 34927 ft 511 kts 103°
2026-05-04 18:59 17.54268 123.62978 34927 ft 511 kts 103°
2026-05-04 19:00 17.52711 123.70248 34927 ft 511 kts 103°
2026-05-04 19:00 17.51162 123.77464 34930 ft 511 kts 103°
2026-05-04 19:01 17.49602 123.84722 34928 ft 511 kts 103°
2026-05-04 19:01 17.48038 123.91979 34930 ft 511 kts 103°
2026-05-04 19:02 17.46473 123.99231 34933 ft 510 kts 103°
2026-05-04 19:02 17.44918 124.06427 34933 ft 510 kts 103°
2026-05-04 19:03 17.43348 124.13676 34928 ft 510 kts 103°
2026-05-04 19:03 17.41777 124.20916 34927 ft 510 kts 103°
2026-05-04 19:04 17.40202 124.28159 34930 ft 510 kts 103°
2026-05-04 19:04 17.38638 124.35342 34934 ft 509 kts 103°
2026-05-04 19:05 17.37143 124.42585 34932 ft 510 kts 98°
2026-05-04 19:05 17.36191 124.49941 34931 ft 510 kts 97°
2026-05-04 19:06 17.35351 124.57306 34933 ft 509 kts 96°
2026-05-04 19:06 17.34536 124.64605 34933 ft 508 kts 96°
2026-05-04 19:07 17.33706 124.71934 34929 ft 506 kts 97°
2026-05-04 19:07 17.32870 124.79239 34930 ft 505 kts 97°
2026-05-04 19:08 17.32029 124.86538 34934 ft 506 kts 97°
2026-05-04 19:08 17.31189 124.93809 34933 ft 507 kts 97°
2026-05-04 19:09 17.30339 125.01136 34929 ft 507 kts 97°
2026-05-04 19:09 17.29489 125.08455 34929 ft 506 kts 97°
2026-05-04 19:10 17.28636 125.15768 34933 ft 506 kts 97°
2026-05-04 19:10 17.27787 125.23027 34933 ft 506 kts 97°
2026-05-04 19:11 17.26929 125.30340 34930 ft 506 kts 97°
2026-05-04 19:11 17.26068 125.37650 34930 ft 506 kts 97°
2026-05-04 19:12 17.24773 125.48609 34934 ft 506 kts 97°
2026-05-04 19:13 17.23913 125.55860 34932 ft 506 kts 97°
2026-05-04 19:13 17.23043 125.63166 34933 ft 506 kts 97°
2026-05-04 19:14 17.22171 125.70466 34937 ft 506 kts 97°
2026-05-04 19:14 17.21297 125.77770 34934 ft 506 kts 97°
2026-05-04 19:15 17.20426 125.85021 34933 ft 506 kts 97°
2026-05-04 19:15 17.19545 125.92325 34933 ft 506 kts 97°
2026-05-04 19:16 17.18662 125.99633 34933 ft 506 kts 97°
2026-05-04 19:16 17.17782 126.06893 34933 ft 506 kts 97°
2026-05-04 19:17 17.16893 126.14198 34932 ft 506 kts 97°
2026-05-04 19:17 17.16002 126.21502 34939 ft 506 kts 97°
2026-05-04 19:18 17.15109 126.28803 34934 ft 507 kts 97°
2026-05-04 19:18 17.14217 126.36074 34934 ft 507 kts 97°
2026-05-04 19:19 17.13316 126.43391 34935 ft 508 kts 97°
2026-05-04 19:19 17.12413 126.50706 34932 ft 507 kts 97°
2026-05-04 19:20 17.11507 126.58025 34933 ft 508 kts 98°
2026-05-04 19:20 17.10598 126.65358 34929 ft 509 kts 98°
2026-05-04 19:21 17.09692 126.72642 34931 ft 509 kts 98°
2026-05-04 19:21 17.08779 126.79968 34937 ft 509 kts 98°
2026-05-04 19:22 17.07861 126.87303 34936 ft 509 kts 98°
2026-05-04 19:22 17.06941 126.94637 34936 ft 509 kts 98°
2026-05-04 19:23 17.06019 127.01971 34934 ft 509 kts 98°
2026-05-04 19:23 17.05100 127.09253 34934 ft 509 kts 98°
2026-05-04 19:24 17.04172 127.16585 34935 ft 509 kts 98°
2026-05-04 19:24 17.03241 127.23922 34933 ft 509 kts 98°
2026-05-04 19:25 17.02308 127.31251 34938 ft 509 kts 98°
2026-05-04 19:25 17.01378 127.38532 34936 ft 509 kts 98°
2026-05-04 19:26 17.00439 127.45863 34936 ft 509 kts 98°
2026-05-04 19:26 16.99499 127.53188 34936 ft 509 kts 98°
2026-05-04 19:27 16.98555 127.60513 34936 ft 509 kts 98°
2026-05-04 19:27 16.97616 127.67790 34936 ft 509 kts 98°
2026-05-04 19:28 16.96667 127.75112 34934 ft 509 kts 98°
2026-05-04 19:28 16.95716 127.82432 34936 ft 509 kts 98°
2026-05-04 19:29 16.94763 127.89748 34937 ft 509 kts 98°
2026-05-04 19:29 16.93807 127.97070 34934 ft 509 kts 98°
2026-05-04 19:30 16.92855 128.04337 34937 ft 508 kts 98°
2026-05-04 19:30 16.91895 128.11643 34939 ft 508 kts 98°
2026-05-04 19:31 16.90931 128.18962 34943 ft 509 kts 98°
2026-05-04 19:31 16.89962 128.26294 34941 ft 510 kts 98°
2026-05-04 19:32 16.88990 128.33631 34941 ft 510 kts 98°
2026-05-04 19:32 16.88016 128.40963 34941 ft 510 kts 98°
2026-05-04 19:33 16.87046 128.48248 34941 ft 510 kts 98°
2026-05-04 19:33 16.86067 128.55580 34941 ft 510 kts 98°
2026-05-04 19:34 16.85085 128.62907 34940 ft 510 kts 98°
2026-05-04 19:34 16.84100 128.70239 34941 ft 510 kts 98°
2026-05-04 19:35 16.83121 128.77513 34943 ft 510 kts 98°
2026-05-04 19:35 16.82131 128.84841 34941 ft 510 kts 98°
2026-05-04 19:36 16.81138 128.92171 34941 ft 510 kts 98°
2026-05-04 19:36 16.80144 128.99494 34941 ft 509 kts 98°
2026-05-04 19:37 16.79154 129.06763 34940 ft 509 kts 98°
2026-05-04 19:37 16.78155 129.14081 34942 ft 509 kts 98°
2026-05-04 19:38 16.77154 129.21395 34942 ft 509 kts 98°
2026-05-04 19:38 16.76150 129.28711 34941 ft 509 kts 98°
2026-05-04 19:39 16.75150 129.35973 34936 ft 509 kts 98°
2026-05-04 19:39 16.74142 129.43279 34944 ft 509 kts 98°
2026-05-04 19:40 16.73132 129.50582 34941 ft 509 kts 98°
2026-05-04 19:40 16.72119 129.57884 34941 ft 509 kts 98°
2026-05-04 19:41 16.71110 129.65140 34942 ft 509 kts 98°
2026-05-04 19:41 16.70092 129.72440 34941 ft 509 kts 98°
2026-05-04 19:42 16.69071 129.79743 34939 ft 509 kts 98°
2026-05-04 19:42 16.68047 129.87047 34939 ft 509 kts 98°
2026-05-04 19:43 16.66992 129.94290 34934 ft 508 kts 102°
2026-05-04 19:43 16.64565 130.01153 34937 ft 504 kts 122°
2026-05-04 19:44 16.60339 130.06930 34935 ft 501 kts 133°
2026-05-04 19:44 16.55668 130.12322 34936 ft 501 kts 135°
2026-05-04 19:45 16.50933 130.17652 34936 ft 501 kts 134°
2026-05-04 19:45 16.46255 130.22963 34936 ft 501 kts 134°
2026-05-04 19:46 16.41563 130.28331 34934 ft 501 kts 134°
2026-05-04 19:46 16.36881 130.33699 34936 ft 500 kts 134°
2026-05-04 19:47 16.32207 130.39054 34936 ft 500 kts 134°
2026-05-04 19:47 16.27560 130.44371 34936 ft 500 kts 134°
2026-05-04 19:48 16.22877 130.49724 34936 ft 500 kts 134°
2026-05-04 19:48 16.18190 130.55077 34936 ft 500 kts 134°
2026-05-04 19:49 16.13507 130.60422 34933 ft 500 kts 134°
2026-05-04 19:49 16.08850 130.65734 34933 ft 500 kts 134°
2026-05-04 19:50 16.04165 130.71074 34936 ft 499 kts 134°
2026-05-04 19:50 15.99485 130.76403 34936 ft 499 kts 134°
2026-05-04 19:51 15.94809 130.81724 34931 ft 498 kts 134°
2026-05-04 19:51 15.90133 130.87041 34933 ft 499 kts 134°
2026-05-04 19:52 15.85482 130.92325 34933 ft 499 kts 134°
2026-05-04 19:52 15.80803 130.97639 34933 ft 499 kts 134°
2026-05-04 19:53 15.76119 131.02953 34931 ft 499 kts 134°
2026-05-04 19:53 15.71429 131.08270 34920 ft 499 kts 134°
2026-05-04 19:54 15.66780 131.13537 34929 ft 498 kts 134°
2026-05-04 19:54 15.62108 131.18827 34931 ft 497 kts 134°
2026-05-04 19:55 15.57434 131.24113 34927 ft 497 kts 134°
2026-05-04 19:55 15.52751 131.29407 34928 ft 497 kts 134°
2026-05-04 19:56 15.48074 131.34691 34932 ft 497 kts 134°
2026-05-04 19:56 15.43424 131.39940 34928 ft 498 kts 134°
2026-05-04 19:57 15.38742 131.45221 34924 ft 498 kts 134°
2026-05-04 19:57 15.34058 131.50502 34925 ft 498 kts 134°
2026-05-04 19:58 15.29374 131.55777 34924 ft 497 kts 134°
2026-05-04 19:58 15.24725 131.61010 34925 ft 497 kts 134°
2026-05-04 19:59 15.20044 131.66275 34925 ft 497 kts 134°
2026-05-04 19:59 15.15361 131.71539 34925 ft 497 kts 134°
2026-05-04 20:00 15.10677 131.76800 34924 ft 497 kts 134°
2026-05-04 20:00 15.06021 131.82026 34925 ft 497 kts 134°
2026-05-04 20:01 15.01330 131.87288 34923 ft 497 kts 134°
2026-05-04 20:01 14.96641 131.92544 34920 ft 497 kts 133°
2026-05-04 20:02 14.91959 131.97789 34920 ft 496 kts 133°
2026-05-04 20:02 14.87282 132.03023 34920 ft 496 kts 133°
2026-05-04 20:03 14.82628 132.08230 34916 ft 496 kts 133°
2026-05-04 20:03 14.77942 132.13467 34917 ft 496 kts 133°
2026-05-04 20:04 14.73256 132.18702 34918 ft 496 kts 134°
2026-05-04 20:04 14.68566 132.23937 34912 ft 496 kts 134°
2026-05-04 20:05 14.63905 132.29136 34910 ft 497 kts 133°
2026-05-04 20:05 14.59213 132.34367 34911 ft 496 kts 133°
2026-05-04 20:06 14.54524 132.39590 34909 ft 496 kts 133°
2026-05-04 20:06 14.49834 132.44812 34910 ft 496 kts 133°
2026-05-04 20:07 14.45140 132.50034 34908 ft 496 kts 133°
2026-05-04 20:07 14.40478 132.55217 34909 ft 496 kts 134°
2026-05-04 20:08 14.35778 132.60439 34910 ft 496 kts 134°
2026-05-04 20:08 14.31084 132.65650 34910 ft 497 kts 134°
2026-05-04 20:09 14.26377 132.70874 34912 ft 497 kts 133°
2026-05-04 20:09 14.21712 132.76047 34911 ft 496 kts 133°
2026-05-04 20:10 14.17010 132.81257 34908 ft 496 kts 133°
2026-05-04 20:10 14.12312 132.86460 34905 ft 496 kts 133°
2026-05-04 20:11 14.07642 132.91628 34905 ft 496 kts 133°
2026-05-04 20:11 14.02940 132.96828 34906 ft 496 kts 133°
2026-05-04 20:12 13.98774 133.02472 34905 ft 496 kts 122°
2026-05-04 20:12 13.95259 133.08597 34903 ft 498 kts 120°
2026-05-04 20:13 13.91858 133.14823 34906 ft 499 kts 119°
2026-05-04 20:13 13.88491 133.21002 34907 ft 499 kts 119°
2026-05-04 20:14 13.85079 133.27217 34904 ft 499 kts 119°
2026-05-04 20:14 13.81655 133.33427 34903 ft 499 kts 119°
2026-05-04 20:15 13.78225 133.39637 34898 ft 499 kts 120°
2026-05-04 20:15 13.74824 133.45791 34899 ft 499 kts 119°
2026-05-04 20:16 13.71390 133.52002 34900 ft 499 kts 119°
2026-05-04 20:16 13.67957 133.58207 34901 ft 499 kts 119°
2026-05-04 20:17 13.64521 133.64414 34900 ft 499 kts 119°
2026-05-04 20:17 13.61107 133.70574 34898 ft 499 kts 119°
2026-05-04 20:18 13.57667 133.76779 34895 ft 499 kts 120°
2026-05-04 20:18 13.54225 133.82981 34898 ft 500 kts 120°
2026-05-04 20:19 13.50780 133.89185 34897 ft 500 kts 119°
2026-05-04 20:19 13.47358 133.95343 34897 ft 499 kts 119°
2026-05-04 20:20 13.43915 134.01534 34894 ft 499 kts 120°
2026-05-04 20:20 13.40468 134.07728 34895 ft 499 kts 119°
2026-05-04 20:21 13.37018 134.13922 34893 ft 500 kts 120°
2026-05-04 20:21 13.31866 134.23165 34895 ft 500 kts 120°
2026-05-04 20:22 13.28409 134.29361 34892 ft 500 kts 120°
2026-05-04 20:22 13.24950 134.35556 34893 ft 500 kts 120°
2026-05-04 20:23 13.21490 134.41749 34890 ft 500 kts 120°
2026-05-04 20:23 13.18029 134.47938 34892 ft 500 kts 120°
2026-05-04 20:24 13.14589 134.54086 34893 ft 500 kts 120°
2026-05-04 20:24 13.11125 134.60272 34892 ft 500 kts 120°
2026-05-04 20:25 13.07658 134.66461 34889 ft 500 kts 120°
2026-05-04 20:25 13.04197 134.72632 34893 ft 499 kts 120°
2026-05-04 20:26 13.00759 134.78760 34891 ft 498 kts 120°
2026-05-04 20:26 12.97299 134.84922 34890 ft 499 kts 120°
2026-05-04 20:27 12.93834 134.91089 34889 ft 499 kts 120°
2026-05-04 20:27 12.90370 134.97250 34889 ft 499 kts 120°
2026-05-04 20:28 12.86904 135.03409 34889 ft 499 kts 120°
2026-05-04 20:28 12.83460 135.09525 34886 ft 499 kts 120°
2026-05-04 20:29 12.79988 135.15689 34887 ft 500 kts 120°
2026-05-04 20:29 12.76513 135.21850 34885 ft 499 kts 120°
2026-05-04 20:30 12.73066 135.27961 34888 ft 498 kts 120°
2026-05-04 20:30 12.69599 135.34101 34887 ft 498 kts 120°
2026-05-04 20:31 12.66135 135.40232 34892 ft 497 kts 120°
2026-05-04 20:31 12.62662 135.46375 34887 ft 499 kts 120°
2026-05-04 20:32 12.59185 135.52520 34878 ft 499 kts 120°
2026-05-04 20:32 12.55736 135.58613 34885 ft 497 kts 120°
2026-05-04 20:33 12.52266 135.64738 34887 ft 498 kts 120°
2026-05-04 20:33 12.48795 135.70861 34882 ft 497 kts 120°
2026-05-04 20:34 12.45342 135.76948 34887 ft 498 kts 120°
2026-05-04 20:34 12.41869 135.83067 34890 ft 498 kts 120°
2026-05-04 20:35 12.38389 135.89193 34886 ft 497 kts 120°
2026-05-04 20:35 12.34913 135.95309 34889 ft 498 kts 120°
2026-05-04 20:36 12.31438 136.01419 34879 ft 497 kts 120°
2026-05-04 20:36 12.27982 136.07491 34884 ft 497 kts 120°
2026-05-04 20:37 12.24505 136.13597 34883 ft 497 kts 120°
2026-05-04 20:37 12.21024 136.19705 34883 ft 497 kts 120°
2026-05-04 20:38 12.17550 136.25797 34882 ft 495 kts 120°
2026-05-04 20:38 12.14113 136.31821 34881 ft 494 kts 121°
2026-05-04 20:39 12.10647 136.37890 34889 ft 494 kts 120°
2026-05-04 20:39 12.07182 136.43956 34885 ft 495 kts 120°
2026-05-04 20:40 12.03705 136.50037 34886 ft 495 kts 121°
2026-05-04 20:40 12.00236 136.56101 34882 ft 493 kts 120°
2026-05-04 20:41 11.96830 136.62051 34879 ft 485 kts 120°
2026-05-04 20:41 11.93429 136.67989 34882 ft 484 kts 120°
2026-05-04 20:42 11.90030 136.73919 34881 ft 484 kts 120°
2026-05-04 20:42 11.86623 136.79860 34882 ft 484 kts 120°
2026-05-04 20:43 11.83238 136.85759 34881 ft 485 kts 120°
2026-05-04 20:43 11.79829 136.91697 34881 ft 484 kts 120°
2026-05-04 20:44 11.76437 136.97601 34882 ft 482 kts 120°
2026-05-04 20:44 11.73048 137.03495 34878 ft 481 kts 120°
2026-05-04 20:45 11.69661 137.09382 34880 ft 481 kts 120°
2026-05-04 20:45 11.66294 137.15233 34878 ft 481 kts 120°
2026-05-04 20:46 11.62905 137.21117 34878 ft 481 kts 120°
2026-05-04 20:46 11.59517 137.26997 34880 ft 480 kts 120°
2026-05-04 20:47 11.56135 137.32862 34881 ft 479 kts 120°
2026-05-04 20:47 11.52763 137.38706 34878 ft 478 kts 120°
2026-05-04 20:48 11.49410 137.44514 34880 ft 478 kts 120°
2026-05-04 20:48 11.46041 137.50348 34883 ft 478 kts 120°
2026-05-04 20:49 11.42668 137.56182 34880 ft 478 kts 120°
2026-05-04 20:49 11.39295 137.62016 34878 ft 478 kts 120°
2026-05-04 20:50 11.35942 137.67811 34875 ft 478 kts 120°
2026-05-04 20:50 11.32566 137.73641 34876 ft 478 kts 121°
2026-05-04 20:51 11.29187 137.79474 34878 ft 478 kts 120°
2026-05-04 20:51 11.25809 137.85303 34878 ft 478 kts 121°
2026-05-04 20:52 11.22452 137.91091 34878 ft 478 kts 121°
2026-05-04 20:52 11.19069 137.96922 34875 ft 477 kts 121°
2026-05-04 20:53 11.15698 138.02728 34880 ft 476 kts 121°
2026-05-04 20:53 11.12332 138.08520 34876 ft 475 kts 121°
2026-05-04 20:54 11.08985 138.14278 34883 ft 476 kts 121°
2026-05-04 20:54 11.05613 138.20076 34880 ft 476 kts 121°
2026-05-04 20:55 11.02243 138.25868 34876 ft 476 kts 121°
2026-05-04 20:55 10.98869 138.31664 34878 ft 475 kts 121°
2026-05-04 20:56 10.95520 138.37412 34879 ft 475 kts 121°
2026-05-04 20:56 10.92149 138.43195 34877 ft 475 kts 121°
2026-05-04 20:57 10.88775 138.48980 34877 ft 476 kts 121°
2026-05-04 20:57 10.85397 138.54770 34878 ft 476 kts 121°
2026-05-04 20:58 10.82039 138.60522 34881 ft 476 kts 121°
2026-05-04 20:58 10.78657 138.66311 34875 ft 476 kts 121°
2026-05-04 20:59 10.75277 138.72094 34881 ft 475 kts 120°
2026-05-04 20:59 10.71899 138.77871 34881 ft 475 kts 121°
2026-05-04 21:00 10.68550 138.83594 34881 ft 474 kts 120°
2026-05-04 21:00 10.65177 138.89355 34886 ft 474 kts 120°
2026-05-04 21:01 10.61804 138.95114 34880 ft 474 kts 120°
2026-05-04 21:01 10.58428 139.00875 34878 ft 474 kts 120°
2026-05-04 21:02 10.55078 139.06589 34879 ft 474 kts 120°
2026-05-04 21:02 10.51698 139.12349 34882 ft 474 kts 120°
2026-05-04 21:03 10.48316 139.18112 34876 ft 475 kts 120°
2026-05-04 21:03 10.44931 139.23876 34876 ft 475 kts 120°
2026-05-04 21:04 10.41567 139.29602 34881 ft 475 kts 120°
2026-05-04 21:04 10.38181 139.35361 34883 ft 475 kts 120°
2026-05-04 21:05 10.34794 139.41120 34884 ft 475 kts 120°
2026-05-04 21:05 10.31404 139.46880 34878 ft 474 kts 120°
2026-05-04 21:06 10.28043 139.52588 34886 ft 473 kts 120°
2026-05-04 21:06 10.24672 139.58312 34883 ft 472 kts 120°
2026-05-04 21:07 10.21302 139.64029 34878 ft 471 kts 120°
2026-05-04 21:07 10.17933 139.69742 34880 ft 472 kts 120°
2026-05-04 21:08 10.14585 139.75417 34883 ft 472 kts 121°
2026-05-04 21:08 10.11217 139.81123 34882 ft 472 kts 121°
2026-05-04 21:09 10.07847 139.86828 34883 ft 470 kts 120°
2026-05-04 21:09 10.04491 139.92508 34882 ft 470 kts 120°
2026-05-04 21:10 10.01158 139.98148 34884 ft 469 kts 120°
2026-05-04 21:10 9.97690 140.03764 34890 ft 470 kts 123°
2026-05-04 21:11 9.94067 140.09285 34885 ft 470 kts 123°
2026-05-04 21:11 9.90424 140.14803 34885 ft 471 kts 123°
2026-05-04 21:12 9.86829 140.20283 34883 ft 470 kts 123°
2026-05-04 21:12 9.83216 140.25811 34884 ft 471 kts 123°
2026-05-04 21:13 9.79603 140.31343 34883 ft 470 kts 123°
2026-05-04 21:13 9.76013 140.36836 34885 ft 471 kts 123°
2026-05-04 21:14 9.72398 140.42364 34892 ft 470 kts 123°
2026-05-04 21:14 9.68776 140.47899 34889 ft 471 kts 123°
2026-05-04 21:15 9.65163 140.53419 34885 ft 470 kts 123°
2026-05-04 21:15 9.61570 140.58904 34887 ft 470 kts 122°
2026-05-04 21:16 9.57967 140.64403 34887 ft 468 kts 123°
2026-05-04 21:16 9.54366 140.69896 34891 ft 468 kts 122°
2026-05-04 21:17 9.50768 140.75383 34887 ft 467 kts 123°
2026-05-04 21:17 9.47189 140.80837 34889 ft 468 kts 122°
2026-05-04 21:18 9.43588 140.86322 34892 ft 467 kts 123°
2026-05-04 21:18 9.39980 140.91817 34894 ft 469 kts 122°
2026-05-04 21:19 9.36370 140.97311 34886 ft 468 kts 122°
2026-05-04 21:19 9.32784 141.02767 34887 ft 468 kts 122°
2026-05-04 21:20 9.29177 141.08252 34889 ft 468 kts 122°
2026-05-04 21:20 9.25565 141.13741 34887 ft 469 kts 122°
2026-05-04 21:21 9.21943 141.19246 34889 ft 470 kts 122°
2026-05-04 21:21 9.18340 141.24716 34888 ft 471 kts 122°
2026-05-04 21:22 9.14713 141.30223 34889 ft 470 kts 122°
2026-05-04 21:22 9.11085 141.35728 34887 ft 470 kts 122°
2026-05-04 21:23 9.07458 141.41228 34887 ft 469 kts 122°
2026-05-04 21:23 9.03856 141.46689 34890 ft 470 kts 122°
2026-05-04 21:24 9.00235 141.52177 34891 ft 469 kts 122°
2026-05-04 21:24 8.96610 141.57669 34888 ft 470 kts 122°
2026-05-04 21:25 8.92984 141.63158 34888 ft 469 kts 122°
2026-05-04 21:25 8.89381 141.68612 34888 ft 471 kts 122°
2026-05-04 21:26 8.85729 141.74137 34894 ft 473 kts 122°
2026-05-04 21:26 8.82065 141.79679 34892 ft 474 kts 122°
2026-05-04 21:27 8.78402 141.85215 34894 ft 474 kts 122°
2026-05-04 21:27 8.74731 141.90762 34887 ft 475 kts 122°
2026-05-04 21:28 8.71087 141.96265 34887 ft 474 kts 122°
2026-05-04 21:28 8.67416 142.01807 34887 ft 474 kts 122°
2026-05-04 21:29 8.63749 142.07342 34889 ft 474 kts 122°
2026-05-04 21:29 8.60084 142.12869 34888 ft 473 kts 122°
2026-05-04 21:30 8.56451 142.18348 34890 ft 472 kts 122°
2026-05-04 21:30 8.52790 142.23866 34892 ft 473 kts 122°
2026-05-04 21:31 8.47299 142.32139 34894 ft 472 kts 122°
2026-05-04 21:32 8.43637 142.37652 34894 ft 472 kts 122°
2026-05-04 21:32 8.40003 142.43122 34887 ft 472 kts 122°
2026-05-04 21:33 8.36349 142.48621 34890 ft 472 kts 122°
2026-05-04 21:33 8.32691 142.54121 34887 ft 472 kts 122°
2026-05-04 21:34 8.29652 142.58691 34886 ft 472 kts 122°
2026-05-04 21:34 8.25396 142.65087 34887 ft 472 kts 122°
2026-05-04 21:35 8.21735 142.70587 34890 ft 472 kts 122°
2026-05-04 21:35 8.18692 142.75155 34890 ft 472 kts 122°
2026-05-04 21:36 8.15027 142.80657 34891 ft 472 kts 122°
2026-05-04 21:36 8.10775 142.87038 34889 ft 471 kts 122°
2026-05-04 21:37 8.07125 142.92513 34892 ft 470 kts 122°
2026-05-04 21:37 8.04087 142.97066 34887 ft 470 kts 122°
2026-05-04 21:38 8.00435 143.02541 34889 ft 470 kts 122°
2026-05-04 21:38 7.96781 143.08015 34891 ft 470 kts 122°
2026-05-04 21:39 7.93130 143.13484 34893 ft 470 kts 122°
2026-05-04 21:39 7.89502 143.18916 34895 ft 470 kts 122°
2026-05-04 21:40 7.85851 143.24380 34888 ft 469 kts 122°
2026-05-04 21:40 7.82205 143.29835 34889 ft 469 kts 122°
2026-05-04 21:41 7.78559 143.35288 34885 ft 469 kts 122°
2026-05-04 21:41 7.74936 143.40703 34889 ft 469 kts 122°
2026-05-04 21:42 7.71288 143.46156 34890 ft 469 kts 122°
2026-05-04 21:42 7.67640 143.51605 34893 ft 469 kts 122°
2026-05-04 21:43 7.63991 143.57054 34897 ft 469 kts 122°
2026-05-04 21:43 7.60370 143.62460 34894 ft 468 kts 122°
2026-05-04 21:44 7.56729 143.67893 34895 ft 467 kts 122°
2026-05-04 21:44 7.53090 143.73321 34892 ft 467 kts 122°
2026-05-04 21:45 7.49449 143.78750 34892 ft 467 kts 122°
2026-05-04 21:45 7.45834 143.84140 34897 ft 467 kts 122°
2026-05-04 21:46 7.42194 143.89565 34891 ft 467 kts 122°
2026-05-04 21:46 7.38553 143.94988 34891 ft 467 kts 122°
2026-05-04 21:47 7.34912 144.00409 34894 ft 467 kts 122°
2026-05-04 21:47 7.31272 144.05828 34889 ft 467 kts 122°
2026-05-04 21:48 7.27659 144.11205 34890 ft 467 kts 122°
2026-05-04 21:48 7.24020 144.16619 34893 ft 467 kts 122°
2026-05-04 21:49 7.20377 144.22036 34896 ft 467 kts 122°
2026-05-04 21:49 7.16739 144.27445 34893 ft 467 kts 122°
2026-05-04 21:50 7.13118 144.32826 34892 ft 467 kts 122°
2026-05-04 21:50 7.09475 144.38239 34890 ft 467 kts 122°
2026-05-04 21:51 7.05834 144.43646 34890 ft 466 kts 122°
2026-05-04 21:51 7.02195 144.49048 34893 ft 466 kts 122°
2026-05-04 21:52 6.98581 144.54413 34890 ft 466 kts 122°
2026-05-04 21:52 6.94939 144.59817 34890 ft 467 kts 122°
2026-05-04 21:53 6.91293 144.65225 34892 ft 467 kts 122°
2026-05-04 21:53 6.87650 144.70627 34893 ft 466 kts 122°
2026-05-04 21:54 6.84032 144.75988 34891 ft 466 kts 122°
2026-05-04 21:54 6.80386 144.81392 34894 ft 466 kts 122°
2026-05-04 21:55 6.76754 144.86772 34898 ft 464 kts 122°
2026-05-04 21:55 6.73126 144.92145 34892 ft 464 kts 122°
2026-05-04 21:56 6.69520 144.97484 34900 ft 464 kts 122°
2026-05-04 21:56 6.65887 145.02860 34896 ft 465 kts 122°
2026-05-04 21:57 6.62249 145.08243 34891 ft 466 kts 122°
2026-05-04 21:57 6.58631 145.13594 34898 ft 466 kts 122°
2026-05-04 21:58 6.54988 145.18981 34892 ft 466 kts 122°
2026-05-04 21:58 6.51346 145.24363 34897 ft 466 kts 122°
2026-05-04 21:59 6.47702 145.29749 34894 ft 466 kts 122°
2026-05-04 21:59 6.44069 145.35116 34895 ft 467 kts 122°
2026-05-04 22:00 6.40412 145.40517 34895 ft 467 kts 122°
2026-05-04 22:00 6.36753 145.45919 34893 ft 467 kts 122°
2026-05-04 22:01 6.33098 145.51313 34892 ft 467 kts 122°
2026-05-04 22:01 6.29432 145.56723 34896 ft 468 kts 122°
2026-05-04 22:02 6.25789 145.62097 34899 ft 468 kts 122°
2026-05-04 22:02 6.22127 145.67497 34892 ft 466 kts 122°
2026-05-04 22:03 6.18476 145.72879 34890 ft 466 kts 122°
2026-05-04 22:03 6.14820 145.78268 34894 ft 466 kts 122°
2026-05-04 22:04 6.11188 145.83620 34893 ft 468 kts 123°
2026-05-04 22:04 6.07515 145.89030 34893 ft 469 kts 123°
2026-05-04 22:05 6.03840 145.94441 34892 ft 469 kts 123°
2026-05-04 22:05 6.00167 145.99852 34891 ft 469 kts 122°
2026-05-04 22:06 5.96577 146.05253 34894 ft 467 kts 122°
2026-05-04 22:06 5.92996 146.10705 34896 ft 467 kts 122°
2026-05-04 22:07 5.89414 146.16159 34892 ft 468 kts 122°
2026-05-04 22:07 5.85822 146.21612 34890 ft 468 kts 122°
2026-05-04 22:08 5.82232 146.27057 34896 ft 468 kts 122°
2026-05-04 22:08 5.78659 146.32472 34886 ft 468 kts 122°
2026-05-04 22:09 5.75059 146.37927 34887 ft 469 kts 122°
2026-05-04 22:09 5.71451 146.43394 34903 ft 470 kts 122°
2026-05-04 22:10 5.67838 146.48866 34894 ft 469 kts 122°
2026-05-04 22:10 5.64257 146.54290 34890 ft 469 kts 122°
2026-05-04 22:11 5.60652 146.59747 34888 ft 469 kts 122°
2026-05-04 22:11 5.57044 146.65209 34895 ft 469 kts 122°
2026-05-04 22:12 5.53433 146.70672 34894 ft 469 kts 122°
2026-05-04 22:12 5.49850 146.76092 34894 ft 469 kts 122°
2026-05-04 22:13 5.46242 146.81549 34893 ft 469 kts 122°
2026-05-04 22:13 5.42632 146.87008 34889 ft 469 kts 122°
2026-05-04 22:14 5.39019 146.92468 34890 ft 469 kts 123°
2026-05-04 22:14 5.35436 146.97884 34892 ft 469 kts 123°
2026-05-04 22:15 5.31827 147.03336 34895 ft 469 kts 123°
2026-05-04 22:15 5.28220 147.08784 34895 ft 469 kts 123°
2026-05-04 22:16 5.24609 147.14237 34893 ft 469 kts 123°
2026-05-04 22:16 5.20999 147.19687 34895 ft 469 kts 123°
2026-05-04 22:17 5.17407 147.25108 34895 ft 470 kts 123°
2026-05-04 22:17 5.13794 147.30560 34895 ft 469 kts 123°
2026-05-04 22:18 5.10179 147.36014 34894 ft 469 kts 123°
2026-05-04 22:18 5.06571 147.41456 34899 ft 468 kts 123°
2026-05-04 22:19 5.02965 147.46893 34891 ft 469 kts 123°
2026-05-04 22:19 4.99376 147.52304 34893 ft 468 kts 123°
2026-05-04 22:20 4.95770 147.57738 34893 ft 468 kts 123°
2026-05-04 22:20 4.92161 147.63177 34890 ft 469 kts 123°
2026-05-04 22:21 4.88549 147.68617 34895 ft 468 kts 123°
2026-05-04 22:21 4.84953 147.74034 34889 ft 470 kts 123°
2026-05-04 22:22 4.81334 147.79485 34892 ft 469 kts 123°
2026-05-04 22:22 4.77723 147.84920 34906 ft 469 kts 123°
2026-05-04 22:23 4.74113 147.90353 34891 ft 467 kts 123°
2026-05-04 22:23 4.70533 147.95740 34890 ft 468 kts 123°
2026-05-04 22:24 4.66918 148.01179 34893 ft 469 kts 123°
2026-05-04 22:24 4.63307 148.06611 34894 ft 468 kts 123°
2026-05-04 22:25 4.59689 148.12051 34896 ft 469 kts 123°
2026-05-04 22:25 4.56071 148.17491 34892 ft 468 kts 123°
2026-05-04 22:26 4.52483 148.22884 34894 ft 469 kts 123°
2026-05-04 22:26 4.48862 148.28326 34892 ft 468 kts 123°
2026-05-04 22:27 4.45256 148.33744 34890 ft 468 kts 123°
2026-05-04 22:27 4.41661 148.39144 34890 ft 469 kts 123°
2026-05-04 22:28 4.38050 148.44568 34893 ft 467 kts 123°
2026-05-04 22:28 4.34436 148.49995 34891 ft 469 kts 123°
2026-05-04 22:29 4.30810 148.55438 34889 ft 469 kts 123°
2026-05-04 22:29 4.27184 148.60881 34891 ft 470 kts 123°
2026-05-04 22:30 4.23551 148.66332 34897 ft 470 kts 123°
2026-05-04 22:30 4.19953 148.71730 34907 ft 470 kts 123°
2026-05-04 22:31 4.16313 148.77191 34905 ft 472 kts 123°
2026-05-04 22:31 4.12663 148.82665 34905 ft 474 kts 123°
2026-05-04 22:32 4.09020 148.88129 34886 ft 475 kts 123°
2026-05-04 22:32 4.05351 148.93628 34902 ft 474 kts 123°
2026-05-04 22:33 4.01686 148.99122 34888 ft 475 kts 123°
2026-05-04 22:33 3.98017 149.04620 34901 ft 475 kts 123°
2026-05-04 22:34 3.94346 149.10122 34903 ft 476 kts 123°
2026-05-04 22:34 3.90685 149.15606 34897 ft 477 kts 123°
2026-05-04 22:35 3.87005 149.21117 34903 ft 475 kts 123°
2026-05-04 22:35 3.83330 149.26621 34898 ft 476 kts 123°
2026-05-04 22:36 3.79653 149.32127 34899 ft 475 kts 122°
2026-05-04 22:36 3.76003 149.37591 34899 ft 475 kts 123°
2026-05-04 22:37 3.72323 149.43098 34895 ft 476 kts 122°
2026-05-04 22:37 3.68647 149.48600 34899 ft 475 kts 123°
2026-05-04 22:38 3.64968 149.54104 34900 ft 476 kts 123°
2026-05-04 22:38 3.61314 149.59570 34897 ft 475 kts 123°
2026-05-04 22:39 3.57634 149.65074 34903 ft 477 kts 123°
2026-05-04 22:39 3.53943 149.70594 34898 ft 477 kts 123°
2026-05-04 22:40 3.50252 149.76113 34896 ft 477 kts 123°
2026-05-04 22:40 3.46580 149.81601 34896 ft 478 kts 123°
2026-05-04 22:41 3.42886 149.87124 34895 ft 477 kts 123°
2026-05-04 22:41 3.39192 149.92643 34895 ft 478 kts 123°
2026-05-04 22:42 3.35489 149.98177 34896 ft 478 kts 123°
2026-05-04 22:42 3.31786 150.03709 34898 ft 478 kts 123°
2026-05-04 22:43 3.28109 150.09202 34895 ft 477 kts 123°
2026-05-04 22:43 3.24428 150.14699 34895 ft 475 kts 123°
2026-05-04 22:44 3.20749 150.20192 34896 ft 475 kts 122°
2026-05-04 22:44 3.17094 150.25649 34898 ft 474 kts 122°
2026-05-04 22:45 3.13425 150.31126 34901 ft 474 kts 122°
2026-05-04 22:45 3.07911 150.39356 34898 ft 474 kts 122°
2026-05-04 22:46 3.04239 150.44835 34899 ft 474 kts 123°
2026-05-04 22:46 3.00585 150.50288 34908 ft 476 kts 122°
2026-05-04 22:47 2.96895 150.55793 34902 ft 475 kts 122°
2026-05-04 22:47 2.93226 150.61266 34903 ft 473 kts 122°
2026-05-04 22:48 2.89563 150.66728 34903 ft 472 kts 122°
2026-05-04 22:48 2.85903 150.72186 34903 ft 472 kts 122°
2026-05-04 22:49 2.82264 150.77612 34905 ft 473 kts 122°
2026-05-04 22:49 2.78600 150.83075 34906 ft 473 kts 122°
2026-05-04 22:50 2.74932 150.88542 34906 ft 474 kts 122°
2026-05-04 22:50 2.71263 150.94010 34901 ft 473 kts 122°
2026-05-04 22:51 2.67617 150.99443 34904 ft 473 kts 122°
2026-05-04 22:51 2.63950 151.04908 34904 ft 473 kts 122°
2026-05-04 22:52 2.60287 151.10366 34905 ft 473 kts 122°
2026-05-04 22:52 2.56622 151.15824 34904 ft 473 kts 122°
2026-05-04 22:53 2.52982 151.21247 34904 ft 473 kts 122°
2026-05-04 22:53 2.49316 151.26707 34906 ft 473 kts 122°
2026-05-04 22:54 2.45653 151.32162 34904 ft 473 kts 122°
2026-05-04 22:54 2.41986 151.37622 34906 ft 473 kts 122°
2026-05-04 22:55 2.38321 151.43078 34908 ft 473 kts 122°
2026-05-04 22:55 2.34679 151.48500 34906 ft 473 kts 122°
2026-05-04 22:56 2.31014 151.53955 34904 ft 473 kts 122°
2026-05-04 22:56 2.27346 151.59414 34903 ft 473 kts 122°
2026-05-04 22:57 2.23681 151.64868 34904 ft 473 kts 121°
2026-05-04 22:57 2.20010 151.70331 34905 ft 474 kts 121°
2026-05-04 22:58 2.16356 151.75768 34903 ft 474 kts 121°
2026-05-04 22:58 2.12680 151.81237 34923 ft 474 kts 121°
2026-05-04 22:59 2.09000 151.86711 34907 ft 474 kts 121°
2026-05-04 22:59 2.05320 151.92184 34923 ft 474 kts 121°
2026-05-04 23:00 2.01667 151.97617 34922 ft 474 kts 121°
2026-05-04 23:00 1.97548 152.02800 34922 ft 478 kts 128°
2026-05-04 23:01 1.93147 152.07780 34912 ft 478 kts 129°
2026-05-04 23:01 1.88689 152.12728 34922 ft 478 kts 129°
2026-05-04 23:02 1.84266 152.17637 34905 ft 478 kts 129°
2026-05-04 23:02 1.79821 152.22586 34922 ft 478 kts 129°
2026-05-04 23:03 1.75378 152.27541 34905 ft 478 kts 129°
2026-05-04 23:03 1.70939 152.32491 34923 ft 478 kts 129°
2026-05-04 23:04 1.66499 152.37443 34909 ft 478 kts 129°
2026-05-04 23:04 1.62090 152.42358 34912 ft 478 kts 129°
2026-05-04 23:05 1.57656 152.47301 34912 ft 478 kts 129°
2026-05-04 23:05 1.53219 152.52248 34908 ft 478 kts 129°
2026-05-04 23:06 1.48782 152.57194 34909 ft 479 kts 129°
2026-05-04 23:06 1.44332 152.62154 34915 ft 479 kts 129°
2026-05-04 23:07 1.39914 152.67077 34909 ft 479 kts 129°
2026-05-04 23:07 1.35464 152.72037 34907 ft 479 kts 129°
2026-05-04 23:08 1.31014 152.76996 34924 ft 479 kts 129°
2026-05-04 23:08 1.26590 152.81925 34909 ft 479 kts 129°
2026-05-04 23:09 1.22143 152.86881 34922 ft 479 kts 129°
2026-05-04 23:09 1.17696 152.91835 34907 ft 478 kts 129°
2026-05-04 23:10 1.13254 152.96785 34908 ft 478 kts 129°
2026-05-04 23:10 1.08812 153.01734 34906 ft 478 kts 129°
2026-05-04 23:11 1.04399 153.06650 34904 ft 478 kts 129°
2026-05-04 23:11 0.99956 153.11600 34923 ft 478 kts 129°
2026-05-04 23:12 0.95517 153.16544 34905 ft 477 kts 129°
2026-05-04 23:12 0.91089 153.21477 34909 ft 477 kts 129°
2026-05-04 23:13 0.86685 153.26383 34921 ft 477 kts 129°
2026-05-04 23:13 0.82253 153.31319 34904 ft 477 kts 129°
2026-05-04 23:14 0.77823 153.36253 34910 ft 477 kts 129°
2026-05-04 23:14 0.73389 153.41191 34905 ft 477 kts 129°
2026-05-04 23:15 0.68986 153.46095 34904 ft 477 kts 129°
2026-05-04 23:15 0.64553 153.51032 34920 ft 477 kts 130°
2026-05-04 23:16 0.60121 153.55967 34911 ft 477 kts 130°
2026-05-04 23:16 0.55689 153.60903 34910 ft 477 kts 130°
2026-05-04 23:17 0.51284 153.65808 34919 ft 477 kts 130°
2026-05-04 23:17 0.46852 153.70744 34902 ft 477 kts 130°
2026-05-04 23:18 0.42418 153.75681 34910 ft 477 kts 130°
2026-05-04 23:18 0.37985 153.80617 34909 ft 477 kts 130°
2026-05-04 23:19 0.33553 153.85552 34921 ft 477 kts 130°
2026-05-04 23:19 0.29148 153.90457 34905 ft 477 kts 130°
2026-05-04 23:20 0.24711 153.95398 34907 ft 477 kts 130°
2026-05-04 23:20 0.20280 154.00331 34923 ft 477 kts 130°
2026-05-04 23:21 0.15847 154.05267 34908 ft 477 kts 130°
2026-05-04 23:21 0.11445 154.10169 34921 ft 477 kts 130°
2026-05-04 23:22 0.07018 154.15098 34905 ft 476 kts 130°
2026-05-04 23:22 0.02594 154.20024 34920 ft 476 kts 130°
2026-05-04 23:23 -0.01533 154.25177 34903 ft 475 kts 124°
2026-05-04 23:23 -0.05326 154.30530 34917 ft 475 kts 123°
2026-05-04 23:24 -0.09093 154.35967 34914 ft 476 kts 123°
2026-05-04 23:24 -0.12853 154.41402 34898 ft 475 kts 123°
2026-05-04 23:25 -0.16620 154.46830 34915 ft 475 kts 123°
2026-05-04 23:25 -0.20391 154.52254 34915 ft 475 kts 123°
2026-05-04 23:26 -0.24137 154.57639 34917 ft 475 kts 123°
2026-05-04 23:26 -0.27905 154.63058 34904 ft 475 kts 123°
2026-05-04 23:27 -0.31676 154.68482 34915 ft 475 kts 123°
2026-05-04 23:27 -0.35446 154.73903 34916 ft 475 kts 123°
2026-05-04 23:28 -0.39209 154.79315 34898 ft 474 kts 123°
2026-05-04 23:28 -0.42943 154.84686 34898 ft 474 kts 123°
2026-05-04 23:29 -0.46701 154.90092 34916 ft 474 kts 123°
2026-05-04 23:29 -0.50461 154.95499 34899 ft 474 kts 123°
2026-05-04 23:30 -0.54220 155.00907 34916 ft 474 kts 123°
2026-05-04 23:30 -0.57954 155.06278 34913 ft 474 kts 123°
2026-05-04 23:31 -0.61715 155.11687 34914 ft 474 kts 123°
2026-05-04 23:31 -0.65477 155.17099 34914 ft 474 kts 123°
2026-05-04 23:32 -0.69237 155.22509 34898 ft 474 kts 123°
2026-05-04 23:32 -0.72998 155.27918 34913 ft 474 kts 123°
2026-05-04 23:33 -0.76732 155.33290 34917 ft 474 kts 123°
2026-05-04 23:33 -0.80494 155.38703 34900 ft 474 kts 123°
2026-05-04 23:34 -0.84251 155.44108 34913 ft 474 kts 123°
2026-05-04 23:34 -0.88012 155.49519 34914 ft 474 kts 123°
2026-05-04 23:35 -0.91746 155.54892 34905 ft 474 kts 123°
2026-05-04 23:35 -0.95504 155.60300 34913 ft 474 kts 123°
2026-05-04 23:36 -0.99263 155.65709 34914 ft 474 kts 123°
2026-05-04 23:36 -1.03021 155.71117 34899 ft 474 kts 123°
2026-05-04 23:37 -1.06751 155.76485 34912 ft 474 kts 123°
2026-05-04 23:37 -1.10509 155.81893 34914 ft 474 kts 123°
2026-05-04 23:38 -1.14263 155.87297 34897 ft 474 kts 123°
2026-05-04 23:38 -1.18024 155.92710 34913 ft 474 kts 123°
2026-05-04 23:39 -1.21755 155.98081 34911 ft 474 kts 123°
2026-05-04 23:39 -1.25514 156.03492 34900 ft 474 kts 123°
2026-05-04 23:40 -1.29271 156.08900 34911 ft 474 kts 123°
2026-05-04 23:40 -1.33027 156.14308 34909 ft 474 kts 123°
2026-05-04 23:41 -1.36757 156.19677 34908 ft 474 kts 123°
2026-05-04 23:41 -1.40513 156.25086 34908 ft 474 kts 123°
2026-05-04 23:42 -1.44270 156.30495 34907 ft 474 kts 123°
2026-05-04 23:42 -1.48030 156.35911 34892 ft 474 kts 123°
2026-05-04 23:43 -1.51784 156.41317 34910 ft 474 kts 123°
2026-05-04 23:43 -1.55517 156.46692 34894 ft 474 kts 123°
2026-05-04 23:44 -1.59275 156.52106 34910 ft 474 kts 123°
2026-05-04 23:44 -1.63031 156.57516 34907 ft 474 kts 123°
2026-05-04 23:45 -1.66786 156.62926 34907 ft 474 kts 123°
2026-05-04 23:45 -1.70518 156.68302 34906 ft 474 kts 123°
2026-05-04 23:46 -1.74270 156.73709 34907 ft 473 kts 123°
2026-05-04 23:46 -1.78024 156.79117 34906 ft 474 kts 123°
2026-05-04 23:47 -1.81785 156.84537 34908 ft 474 kts 123°
2026-05-04 23:47 -1.85516 156.89914 34893 ft 474 kts 123°
2026-05-04 23:48 -1.89273 156.95329 34907 ft 474 kts 123°
2026-05-04 23:48 -1.93031 157.00745 34906 ft 474 kts 123°
2026-05-04 23:49 -1.96789 157.06164 34907 ft 473 kts 123°
2026-05-04 23:49 -2.00540 157.11571 34907 ft 474 kts 123°
2026-05-04 23:50 -2.04272 157.16951 34907 ft 474 kts 123°
2026-05-04 23:50 -2.08030 157.22370 34905 ft 474 kts 123°
2026-05-04 23:51 -2.11780 157.27779 34902 ft 472 kts 123°
2026-05-04 23:51 -2.15499 157.33142 34903 ft 473 kts 123°
2026-05-04 23:52 -2.19249 157.38551 34902 ft 473 kts 123°
2026-05-04 23:52 -2.22996 157.43955 34902 ft 472 kts 124°
2026-05-04 23:53 -2.26697 157.49293 34901 ft 463 kts 124°
2026-05-04 23:53 -2.30340 157.54546 34904 ft 462 kts 123°
2026-05-04 23:54 -2.33995 157.59821 34903 ft 461 kts 123°
2026-05-04 23:54 -2.37647 157.65091 34903 ft 461 kts 123°
2026-05-04 23:55 -2.41297 157.70360 34903 ft 462 kts 124°
2026-05-04 23:56 -2.46760 157.78245 34903 ft 461 kts 123°
2026-05-04 23:56 -2.50406 157.83509 34904 ft 461 kts 123°
2026-05-04 23:57 -2.54061 157.88786 34904 ft 462 kts 123°
2026-05-04 23:57 -2.57726 157.94078 34904 ft 462 kts 123°
2026-05-04 23:58 -2.61357 157.99321 34901 ft 461 kts 123°
2026-05-04 23:58 -2.65012 158.04602 34902 ft 462 kts 123°
2026-05-04 23:59 -2.68675 158.09892 34899 ft 463 kts 123°
2026-05-04 23:59 -2.72311 158.15145 34898 ft 462 kts 123°
2026-05-05 00:00 -2.75965 158.20425 34901 ft 462 kts 123°
2026-05-05 00:00 -2.79623 158.25710 34900 ft 463 kts 123°
2026-05-05 00:01 -2.83286 158.31004 34899 ft 463 kts 123°
2026-05-05 00:01 -2.86919 158.36256 34897 ft 462 kts 123°
2026-05-05 00:02 -2.90575 158.41540 34896 ft 462 kts 123°
2026-05-05 00:02 -2.94237 158.46836 34898 ft 463 kts 123°
2026-05-05 00:03 -2.97903 158.52137 34898 ft 463 kts 123°
2026-05-05 00:03 -3.01561 158.57427 34897 ft 462 kts 123°
2026-05-05 00:04 -3.05194 158.62681 34896 ft 463 kts 123°
2026-05-05 00:04 -3.08858 158.67982 34895 ft 463 kts 123°
2026-05-05 00:05 -3.12520 158.73279 34894 ft 462 kts 123°
2026-05-05 00:05 -3.16179 158.78574 34895 ft 462 kts 123°
2026-05-05 00:06 -3.19814 158.83834 34896 ft 463 kts 123°
2026-05-05 00:06 -3.23478 158.89138 34895 ft 463 kts 123°
2026-05-05 00:07 -3.27137 158.94436 34898 ft 462 kts 123°
2026-05-05 00:07 -3.30796 158.99733 34894 ft 463 kts 123°
2026-05-05 00:08 -3.34436 159.05004 34895 ft 464 kts 123°
2026-05-05 00:08 -3.38101 159.10312 34895 ft 463 kts 123°
2026-05-05 00:09 -3.41763 159.15617 34896 ft 463 kts 123°
2026-05-05 00:09 -3.45425 159.20922 34894 ft 464 kts 124°
2026-05-05 00:10 -3.49070 159.26203 34892 ft 464 kts 124°
2026-05-05 00:10 -3.52733 159.31512 34895 ft 464 kts 123°
2026-05-05 00:11 -3.56401 159.36828 34882 ft 464 kts 124°
2026-05-05 00:11 -3.60065 159.42140 34894 ft 464 kts 124°
2026-05-05 00:12 -3.63705 159.47417 34891 ft 463 kts 124°
2026-05-05 00:12 -3.67360 159.52717 34891 ft 462 kts 124°
2026-05-05 00:13 -3.71015 159.58018 34895 ft 464 kts 124°
2026-05-05 00:13 -3.74684 159.63341 34894 ft 465 kts 124°
2026-05-05 00:14 -3.78328 159.68628 34893 ft 464 kts 124°
2026-05-05 00:14 -3.81989 159.73942 34894 ft 464 kts 124°
2026-05-05 00:15 -3.85655 159.79262 34897 ft 464 kts 124°
2026-05-05 00:15 -3.89329 159.84595 34891 ft 465 kts 124°
2026-05-05 00:16 -3.92993 159.89916 34893 ft 465 kts 124°
2026-05-05 00:16 -3.96641 159.95213 34894 ft 466 kts 124°
2026-05-05 00:17 -4.00524 160.00415 34894 ft 467 kts 132°
2026-05-05 00:17 -4.05034 160.05108 34891 ft 467 kts 134°
2026-05-05 00:18 -4.09650 160.09683 34894 ft 467 kts 135°
2026-05-05 00:18 -4.14284 160.14239 34893 ft 467 kts 135°
2026-05-05 00:19 -4.18878 160.18774 34891 ft 467 kts 135°
2026-05-05 00:19 -4.23498 160.23349 34888 ft 467 kts 135°
2026-05-05 00:20 -4.28119 160.27931 34876 ft 467 kts 135°
2026-05-05 00:20 -4.32738 160.32512 34893 ft 468 kts 135°
2026-05-05 00:21 -4.37336 160.37071 34893 ft 469 kts 135°
2026-05-05 00:21 -4.41972 160.41669 34876 ft 469 kts 135°
2026-05-05 00:22 -4.46609 160.46268 34891 ft 469 kts 135°
2026-05-05 00:22 -4.50462 160.50091 34890 ft 469 kts 135°
2026-05-05 00:23 -4.55096 160.54690 34873 ft 469 kts 135°
2026-05-05 00:23 -4.60490 160.60043 34889 ft 470 kts 135°
2026-05-05 00:24 -4.64381 160.63907 34887 ft 470 kts 135°
2026-05-05 00:24 -4.68998 160.68490 34886 ft 470 kts 136°
2026-05-05 00:25 -4.73645 160.73106 34871 ft 470 kts 135°
2026-05-05 00:25 -4.78287 160.77717 34888 ft 470 kts 135°
2026-05-05 00:26 -4.82929 160.82328 34875 ft 470 kts 136°
2026-05-05 00:26 -4.87545 160.86915 34888 ft 470 kts 135°
2026-05-05 00:27 -4.92193 160.91535 34888 ft 471 kts 135°
2026-05-05 00:27 -4.96851 160.96165 34890 ft 471 kts 135°
2026-05-05 00:28 -5.02262 161.01546 34887 ft 471 kts 136°
2026-05-05 00:28 -5.06133 161.05396 34873 ft 472 kts 136°
2026-05-05 00:29 -5.10792 161.10030 34886 ft 472 kts 136°
2026-05-05 00:29 -5.15451 161.14666 34888 ft 472 kts 136°
2026-05-05 00:30 -5.20107 161.19299 34886 ft 472 kts 136°
2026-05-05 00:30 -5.24765 161.23936 34887 ft 472 kts 136°
2026-05-05 00:31 -5.29387 161.28537 34888 ft 471 kts 136°
2026-05-05 00:31 -5.34040 161.33171 34886 ft 471 kts 136°
2026-05-05 00:32 -5.38685 161.37798 34885 ft 471 kts 136°
2026-05-05 00:32 -5.43333 161.42429 34888 ft 471 kts 136°
2026-05-05 00:33 -5.47946 161.47026 34870 ft 470 kts 136°
2026-05-05 00:33 -5.52589 161.51654 34887 ft 470 kts 136°
2026-05-05 00:34 -5.57228 161.56279 34887 ft 470 kts 136°
2026-05-05 00:34 -5.61870 161.60908 34886 ft 471 kts 136°
2026-05-05 00:35 -5.66482 161.65508 34870 ft 471 kts 136°
2026-05-05 00:35 -5.71127 161.70143 34886 ft 471 kts 136°
2026-05-05 00:36 -5.75771 161.74777 34885 ft 471 kts 136°
2026-05-05 00:36 -5.80418 161.79416 34884 ft 471 kts 136°
2026-05-05 00:37 -5.85066 161.84056 34879 ft 472 kts 136°
2026-05-05 00:37 -5.89689 161.88673 34884 ft 472 kts 136°
2026-05-05 00:38 -5.94342 161.93322 34886 ft 472 kts 136°
2026-05-05 00:38 -5.98996 161.97971 34872 ft 472 kts 136°
2026-05-05 00:39 -6.03648 162.02621 34871 ft 472 kts 136°
2026-05-05 00:39 -6.08272 162.07244 34883 ft 472 kts 136°
2026-05-05 00:40 -6.12927 162.11898 34887 ft 472 kts 136°
2026-05-05 00:40 -6.17577 162.16549 34873 ft 472 kts 136°
2026-05-05 00:41 -6.22227 162.21201 34870 ft 472 kts 136°
2026-05-05 00:41 -6.26880 162.25857 34871 ft 472 kts 136°
2026-05-05 00:42 -6.31496 162.30478 34888 ft 471 kts 136°
2026-05-05 00:42 -6.36141 162.35129 34887 ft 471 kts 136°
2026-05-05 00:43 -6.40783 162.39778 34868 ft 471 kts 136°
2026-05-05 00:43 -6.45398 162.44402 34868 ft 471 kts 136°
2026-05-05 00:44 -6.50038 162.49051 34885 ft 471 kts 136°
2026-05-05 00:44 -6.54680 162.53705 34886 ft 471 kts 136°
2026-05-05 00:45 -6.59311 162.58348 34867 ft 470 kts 136°
2026-05-05 00:45 -6.63907 162.62958 34868 ft 469 kts 136°
2026-05-05 00:46 -6.68530 162.67595 34886 ft 469 kts 136°
2026-05-05 00:46 -6.73152 162.72233 34885 ft 469 kts 136°
2026-05-05 00:47 -6.77775 162.76873 34867 ft 469 kts 136°
2026-05-05 00:47 -6.82396 162.81513 34884 ft 469 kts 136°
2026-05-05 00:48 -6.86986 162.86123 34868 ft 469 kts 136°
2026-05-05 00:48 -6.91606 162.90765 34884 ft 469 kts 136°
2026-05-05 00:49 -6.96227 162.95408 34865 ft 469 kts 136°
2026-05-05 00:49 -7.00845 163.00051 34885 ft 469 kts 136°
2026-05-05 00:50 -7.05436 163.04667 34868 ft 469 kts 136°
2026-05-05 00:50 -7.10053 163.09310 34882 ft 469 kts 136°
2026-05-05 00:51 -7.14667 163.13953 34865 ft 469 kts 136°
2026-05-05 00:51 -7.19285 163.18601 34866 ft 469 kts 136°
2026-05-05 00:52 -7.23899 163.23245 34868 ft 469 kts 136°
2026-05-05 00:52 -7.28484 163.27863 34868 ft 469 kts 136°
2026-05-05 00:53 -7.33085 163.32499 34870 ft 468 kts 136°
2026-05-05 00:53 -7.37686 163.37135 34866 ft 467 kts 136°
2026-05-05 00:54 -7.42282 163.41767 34867 ft 467 kts 136°
2026-05-05 00:54 -7.46846 163.46369 34870 ft 467 kts 136°
2026-05-05 00:55 -7.51440 163.51003 34868 ft 467 kts 136°
2026-05-05 00:55 -7.56034 163.55643 34863 ft 467 kts 136°
2026-05-05 00:56 -7.60626 163.60280 34867 ft 467 kts 136°
2026-05-05 00:56 -7.65189 163.64888 34866 ft 467 kts 136°
2026-05-05 00:57 -7.69774 163.69519 34864 ft 466 kts 136°
2026-05-05 00:57 -7.74352 163.74144 34866 ft 466 kts 136°
2026-05-05 00:58 -7.78933 163.78772 34866 ft 466 kts 136°
2026-05-05 00:58 -7.83477 163.83366 34863 ft 466 kts 136°
2026-05-05 00:59 -7.88055 163.87995 34863 ft 466 kts 136°
2026-05-05 00:59 -7.92628 163.92622 34865 ft 466 kts 136°
2026-05-05 01:00 -7.97203 163.97251 34864 ft 466 kts 136°
2026-05-05 01:00 -8.01734 164.01927 34869 ft 466 kts 135°
2026-05-05 01:01 -8.06090 164.06726 34863 ft 467 kts 134°
2026-05-05 01:01 -8.10440 164.11589 34858 ft 467 kts 134°
2026-05-05 01:02 -8.14803 164.16443 34858 ft 467 kts 134°
2026-05-05 01:02 -8.19175 164.21284 34858 ft 467 kts 134°
2026-05-05 01:03 -8.23524 164.26094 34858 ft 467 kts 134°
2026-05-05 01:03 -8.27897 164.30931 34858 ft 467 kts 134°
2026-05-05 01:04 -8.32275 164.35779 34864 ft 467 kts 134°
2026-05-05 01:04 -8.38837 164.43047 34858 ft 467 kts 134°
2026-05-05 01:05 -8.43188 164.47868 34858 ft 467 kts 134°
2026-05-05 01:05 -8.47563 164.52718 34859 ft 467 kts 134°
2026-05-05 01:06 -8.51935 164.57567 34859 ft 467 kts 134°
2026-05-05 01:06 -8.56305 164.62414 34860 ft 467 kts 134°
2026-05-05 01:07 -8.60648 164.67234 34855 ft 467 kts 134°
2026-05-05 01:07 -8.65021 164.72089 34854 ft 467 kts 134°
2026-05-05 01:08 -8.69395 164.76946 34856 ft 467 kts 134°
2026-05-05 01:08 -8.73771 164.81807 34853 ft 468 kts 134°
2026-05-05 01:09 -8.78119 164.86640 34856 ft 468 kts 134°
2026-05-05 01:09 -8.82495 164.91505 34852 ft 467 kts 134°
2026-05-05 01:10 -8.86864 164.96365 34852 ft 467 kts 134°
2026-05-05 01:10 -8.91234 165.01227 34855 ft 467 kts 134°
2026-05-05 01:11 -8.95577 165.06061 34852 ft 467 kts 134°
2026-05-05 01:11 -8.99943 165.10923 34856 ft 467 kts 134°
2026-05-05 01:12 -9.04310 165.15788 34854 ft 467 kts 134°
2026-05-05 01:12 -9.08679 165.20657 34854 ft 467 kts 134°
2026-05-05 01:13 -9.13013 165.25489 34851 ft 467 kts 134°
2026-05-05 01:13 -9.17378 165.30357 34854 ft 467 kts 134°
2026-05-05 01:14 -9.21737 165.35221 34854 ft 466 kts 134°
2026-05-05 01:14 -9.26056 165.40041 34854 ft 465 kts 134°
2026-05-05 01:15 -9.30401 165.44893 34853 ft 465 kts 134°
2026-05-05 01:15 -9.34752 165.49752 34854 ft 465 kts 134°
2026-05-05 01:16 -9.39097 165.54608 34851 ft 465 kts 134°
2026-05-05 01:16 -9.43444 165.59468 34850 ft 465 kts 134°
2026-05-05 01:17 -9.47760 165.64295 34848 ft 465 kts 134°
2026-05-05 01:17 -9.52106 165.69157 34847 ft 465 kts 134°
2026-05-05 01:18 -9.56452 165.74021 34851 ft 465 kts 134°
2026-05-05 01:18 -9.60766 165.78852 34854 ft 465 kts 134°
2026-05-05 01:19 -9.65108 165.83716 34847 ft 466 kts 134°
2026-05-05 01:19 -9.69458 165.88591 34851 ft 466 kts 134°
2026-05-05 01:20 -9.73805 165.93465 34850 ft 466 kts 134°
2026-05-05 01:20 -9.78153 165.98341 34848 ft 466 kts 134°
2026-05-05 01:21 -9.82472 166.03188 34852 ft 466 kts 134°
2026-05-05 01:21 -9.86817 166.08065 34850 ft 466 kts 134°
2026-05-05 01:22 -9.91161 166.12944 34851 ft 466 kts 134°
2026-05-05 01:22 -9.95506 166.17826 34851 ft 466 kts 134°
2026-05-05 01:23 -9.99821 166.22676 34851 ft 466 kts 134°
2026-05-05 01:23 -10.04164 166.27560 34851 ft 466 kts 134°
2026-05-05 01:24 -10.08508 166.32447 34848 ft 466 kts 134°
2026-05-05 01:24 -10.12848 166.37331 34848 ft 466 kts 134°
2026-05-05 01:25 -10.17189 166.42219 34854 ft 466 kts 134°
2026-05-05 01:25 -10.21497 166.47071 34851 ft 466 kts 134°
2026-05-05 01:26 -10.25839 166.51965 34848 ft 466 kts 134°
2026-05-05 01:26 -10.30174 166.56853 34848 ft 466 kts 134°
2026-05-05 01:27 -10.34511 166.61745 34848 ft 466 kts 134°
2026-05-05 01:27 -10.38817 166.66604 34849 ft 466 kts 134°
2026-05-05 01:28 -10.43151 166.71497 34848 ft 466 kts 134°
2026-05-05 01:28 -10.47484 166.76390 34849 ft 466 kts 134°
2026-05-05 01:29 -10.51813 166.81282 34851 ft 466 kts 134°
2026-05-05 01:29 -10.56148 166.86182 34852 ft 466 kts 134°
2026-05-05 01:30 -10.60452 166.91051 34850 ft 466 kts 135°
2026-05-05 01:30 -10.64783 166.95951 34845 ft 466 kts 135°
2026-05-05 01:31 -10.69116 167.00856 34846 ft 466 kts 135°
2026-05-05 01:31 -10.73418 167.05729 34846 ft 466 kts 135°
2026-05-05 01:32 -10.77748 167.10635 34846 ft 466 kts 135°
2026-05-05 01:32 -10.82080 167.15545 34846 ft 466 kts 135°
2026-05-05 01:33 -10.86413 167.20459 34848 ft 466 kts 135°
2026-05-05 01:33 -10.90711 167.25337 34845 ft 466 kts 135°
2026-05-05 01:34 -10.95043 167.30255 34846 ft 466 kts 135°
2026-05-05 01:34 -10.99370 167.35169 34845 ft 466 kts 135°
2026-05-05 01:35 -11.03702 167.40091 34851 ft 466 kts 135°
2026-05-05 01:35 -11.07999 167.44977 34845 ft 466 kts 135°
2026-05-05 01:36 -11.12327 167.49899 34845 ft 466 kts 135°
2026-05-05 01:36 -11.16652 167.54820 34845 ft 466 kts 135°
2026-05-05 01:37 -11.20977 167.59744 34854 ft 466 kts 135°
2026-05-05 01:37 -11.25306 167.64675 34848 ft 467 kts 135°
2026-05-05 01:38 -11.29611 167.69581 34845 ft 468 kts 135°
2026-05-05 01:38 -11.33924 167.74539 34846 ft 468 kts 134°
2026-05-05 01:39 -11.38131 167.79604 34845 ft 468 kts 133°
2026-05-05 01:39 -11.42306 167.84702 34848 ft 468 kts 133°
2026-05-05 01:40 -11.46486 167.89793 34845 ft 468 kts 133°
2026-05-05 01:40 -11.50641 167.94838 34845 ft 467 kts 133°
2026-05-05 01:41 -11.54831 167.99919 34846 ft 469 kts 133°
2026-05-05 01:41 -11.59036 168.05021 34845 ft 471 kts 133°
2026-05-05 01:42 -11.63248 168.10137 34845 ft 471 kts 133°
2026-05-05 01:42 -11.67426 168.15213 34845 ft 470 kts 133°
2026-05-05 01:43 -11.71632 168.20328 34846 ft 470 kts 133°
2026-05-05 01:43 -11.75837 168.25442 34845 ft 470 kts 133°
2026-05-05 01:44 -11.80042 168.30561 34849 ft 470 kts 133°
2026-05-05 01:44 -11.84222 168.35649 34845 ft 472 kts 133°
2026-05-05 01:45 -11.88445 168.40793 34848 ft 473 kts 132°
2026-05-05 01:45 -11.92672 168.45945 34846 ft 473 kts 132°
2026-05-05 01:46 -11.96899 168.51102 34849 ft 473 kts 132°
2026-05-05 01:46 -12.01098 168.56225 34846 ft 473 kts 132°
2026-05-05 01:47 -12.05319 168.61379 34841 ft 473 kts 132°
2026-05-05 01:47 -12.09543 168.66539 34845 ft 473 kts 132°
2026-05-05 01:48 -12.13769 168.71703 34851 ft 474 kts 132°
2026-05-05 01:48 -12.17970 168.76840 34855 ft 475 kts 132°
2026-05-05 01:49 -12.22206 168.82023 34850 ft 475 kts 132°
2026-05-05 01:49 -12.26437 168.87204 34849 ft 475 kts 132°
2026-05-05 01:50 -12.30672 168.92391 34850 ft 475 kts 132°
2026-05-05 01:50 -12.34871 168.97537 34852 ft 475 kts 132°
2026-05-05 01:51 -12.39100 169.02724 34851 ft 475 kts 132°
2026-05-05 01:51 -12.43330 169.07913 34856 ft 475 kts 132°
2026-05-05 01:52 -12.47556 169.13101 34855 ft 475 kts 132°
2026-05-05 01:52 -12.51783 169.18293 34854 ft 475 kts 132°
2026-05-05 01:53 -12.55975 169.23445 34853 ft 475 kts 132°
2026-05-05 01:53 -12.60200 169.28640 34851 ft 475 kts 132°
2026-05-05 01:54 -12.64423 169.33836 34851 ft 475 kts 132°
2026-05-05 01:54 -12.68648 169.39038 34851 ft 475 kts 132°
2026-05-05 01:55 -12.72841 169.44202 34857 ft 475 kts 132°
2026-05-05 01:55 -12.77066 169.49409 34853 ft 475 kts 132°
2026-05-05 01:56 -12.81293 169.54622 34854 ft 476 kts 132°
2026-05-05 01:56 -12.85517 169.59834 34856 ft 476 kts 132°
2026-05-05 01:57 -12.89743 169.65052 34856 ft 475 kts 132°
2026-05-05 01:57 -12.93939 169.70236 34858 ft 475 kts 132°
2026-05-05 01:58 -12.98161 169.75455 34853 ft 476 kts 132°
2026-05-05 01:58 -13.02385 169.80678 34859 ft 476 kts 132°
2026-05-05 01:59 -13.06612 169.85909 34860 ft 477 kts 132°
2026-05-05 01:59 -13.10815 169.91113 34856 ft 477 kts 132°
2026-05-05 02:00 -13.15043 169.96353 34857 ft 477 kts 132°
2026-05-05 02:00 -13.19275 170.01599 34855 ft 477 kts 132°
2026-05-05 02:01 -13.23502 170.06843 34855 ft 477 kts 132°
2026-05-05 02:01 -13.27703 170.12057 34856 ft 477 kts 132°
2026-05-05 02:02 -13.31930 170.17307 34863 ft 477 kts 132°
2026-05-05 02:02 -13.36160 170.22563 34851 ft 478 kts 132°
2026-05-05 02:03 -13.40399 170.27834 34854 ft 479 kts 132°
2026-05-05 02:03 -13.44609 170.33072 34854 ft 479 kts 132°
2026-05-05 02:04 -13.48849 170.38351 34854 ft 479 kts 132°
2026-05-05 02:04 -13.53084 170.43627 34849 ft 479 kts 132°
2026-05-05 02:05 -13.57322 170.48909 34851 ft 479 kts 132°
2026-05-05 02:05 -13.61527 170.54154 34862 ft 479 kts 132°
2026-05-05 02:06 -13.65761 170.59438 34846 ft 479 kts 132°
2026-05-05 02:06 -13.70000 170.64732 34851 ft 480 kts 133°
2026-05-05 02:07 -13.74242 170.70032 34852 ft 480 kts 133°
2026-05-05 02:07 -13.78451 170.75297 34870 ft 479 kts 133°
2026-05-05 02:08 -13.82687 170.80596 34851 ft 480 kts 133°
2026-05-05 02:08 -13.86920 170.85896 34849 ft 480 kts 133°
2026-05-05 02:09 -13.91157 170.91204 34860 ft 479 kts 133°
2026-05-05 02:09 -13.95358 170.96471 34858 ft 479 kts 133°
2026-05-05 02:10 -13.99593 171.01782 34859 ft 480 kts 133°
2026-05-05 02:10 -14.03823 171.07091 34863 ft 480 kts 133°
2026-05-05 02:11 -14.08051 171.12402 34862 ft 478 kts 133°
2026-05-05 02:11 -14.12231 171.17657 34861 ft 477 kts 133°
2026-05-05 02:12 -14.18538 171.25589 34865 ft 477 kts 133°
2026-05-05 02:13 -14.22740 171.30877 34865 ft 477 kts 133°
2026-05-05 02:13 -14.26913 171.36133 34865 ft 477 kts 133°
2026-05-05 02:14 -14.31113 171.41428 34865 ft 477 kts 133°
2026-05-05 02:14 -14.35312 171.46725 34864 ft 477 kts 133°
2026-05-05 02:15 -14.39513 171.52026 34867 ft 477 kts 133°
2026-05-05 02:15 -14.43681 171.57290 34867 ft 477 kts 133°
2026-05-05 02:16 -14.47878 171.62593 34867 ft 477 kts 133°
2026-05-05 02:16 -14.52075 171.67901 34868 ft 477 kts 133°
2026-05-05 02:17 -14.56268 171.73207 34870 ft 477 kts 133°
2026-05-05 02:17 -14.60434 171.78483 34867 ft 477 kts 133°
2026-05-05 02:18 -14.64628 171.83796 34869 ft 477 kts 133°
2026-05-05 02:18 -14.68821 171.89113 34868 ft 477 kts 133°
2026-05-05 02:19 -14.73013 171.94432 34866 ft 477 kts 132°
2026-05-05 02:19 -14.77202 171.99751 34868 ft 477 kts 132°
2026-05-05 02:20 -14.81360 172.05034 34869 ft 477 kts 132°
2026-05-05 02:20 -14.85544 172.10354 34868 ft 477 kts 132°
2026-05-05 02:21 -14.89726 172.15674 34865 ft 477 kts 132°
2026-05-05 02:21 -14.93880 172.20962 34865 ft 477 kts 132°
2026-05-05 02:22 -14.98056 172.26283 34871 ft 477 kts 132°
2026-05-05 02:22 -15.01670 172.32055 34870 ft 480 kts 123°
2026-05-05 02:23 -15.04987 172.38074 34868 ft 482 kts 122°
2026-05-05 02:23 -15.08222 172.44091 34867 ft 482 kts 122°
2026-05-05 02:24 -15.11466 172.50168 34870 ft 482 kts 122°
2026-05-05 02:24 -15.14705 172.56234 34870 ft 482 kts 122°
2026-05-05 02:25 -15.17948 172.62304 34880 ft 482 kts 122°
2026-05-05 02:25 -15.21184 172.68364 34871 ft 480 kts 122°
2026-05-05 02:26 -15.24395 172.74379 34871 ft 480 kts 122°
2026-05-05 02:26 -15.27622 172.80429 34878 ft 480 kts 122°
2026-05-05 02:27 -15.30849 172.86486 34874 ft 480 kts 122°
2026-05-05 02:27 -15.34074 172.92544 34873 ft 480 kts 122°
2026-05-05 02:28 -15.37276 172.98561 34873 ft 480 kts 122°
2026-05-05 02:28 -15.40496 173.04619 34873 ft 480 kts 122°
2026-05-05 02:29 -15.43716 173.10683 34875 ft 480 kts 122°
2026-05-05 02:29 -15.46936 173.16750 34878 ft 480 kts 122°
2026-05-05 02:30 -15.50130 173.22774 34865 ft 480 kts 122°
2026-05-05 02:30 -15.53343 173.28838 34873 ft 480 kts 122°
2026-05-05 02:31 -15.56556 173.34909 34878 ft 479 kts 122°
2026-05-05 02:31 -15.59757 173.40962 34871 ft 478 kts 122°
2026-05-05 02:32 -15.62933 173.46971 34874 ft 478 kts 122°
2026-05-05 02:32 -15.66129 173.53023 34875 ft 478 kts 122°
2026-05-05 02:33 -15.69326 173.59080 34880 ft 479 kts 122°
2026-05-05 02:33 -15.72527 173.65152 34875 ft 480 kts 122°
2026-05-05 02:34 -15.75709 173.71193 34873 ft 480 kts 122°
2026-05-05 02:34 -15.78909 173.77275 34875 ft 480 kts 122°
2026-05-05 02:35 -15.82108 173.83359 34863 ft 480 kts 122°
2026-05-05 02:35 -15.85302 173.89437 34866 ft 480 kts 122°
2026-05-05 02:36 -15.88478 173.95486 34872 ft 481 kts 121°
2026-05-05 02:36 -15.91679 174.01588 34882 ft 481 kts 122°
2026-05-05 02:37 -15.94879 174.07697 34872 ft 481 kts 122°
2026-05-05 02:37 -15.98072 174.13795 34873 ft 480 kts 122°
2026-05-05 02:38 -16.01262 174.19893 34874 ft 480 kts 122°
2026-05-05 02:38 -16.04431 174.25956 34873 ft 480 kts 122°
2026-05-05 02:39 -16.07619 174.32059 34874 ft 481 kts 122°
2026-05-05 02:39 -16.10810 174.38173 34873 ft 481 kts 122°
2026-05-05 02:40 -16.14001 174.44294 34875 ft 481 kts 122°
2026-05-05 02:40 -16.17169 174.50377 34875 ft 481 kts 122°
2026-05-05 02:41 -16.20357 174.56501 34873 ft 481 kts 122°
2026-05-05 02:41 -16.23541 174.62624 34873 ft 481 kts 122°
2026-05-05 02:42 -16.26726 174.68754 34874 ft 481 kts 121°
2026-05-05 02:42 -16.29911 174.74889 34878 ft 481 kts 122°
2026-05-05 02:43 -16.33060 174.80965 34875 ft 479 kts 122°
2026-05-05 02:43 -16.36225 174.87072 34876 ft 479 kts 122°
2026-05-05 02:44 -16.39385 174.93175 34876 ft 479 kts 122°
2026-05-05 02:44 -16.42545 174.99283 34875 ft 479 kts 122°
2026-05-05 02:45 -16.45680 175.05349 34886 ft 479 kts 122°
2026-05-05 02:45 -16.48839 175.11466 34880 ft 480 kts 122°
2026-05-05 02:46 -16.51999 175.17592 34877 ft 480 kts 122°
2026-05-05 02:46 -16.55157 175.23718 34877 ft 480 kts 122°
2026-05-05 02:47 -16.58297 175.29815 34879 ft 480 kts 122°
2026-05-05 02:47 -16.61453 175.35949 34881 ft 480 kts 122°
2026-05-05 02:48 -16.64606 175.42083 34883 ft 480 kts 122°
2026-05-05 02:48 -16.67759 175.48223 34882 ft 480 kts 123°
2026-05-05 02:49 -16.70892 175.54328 34881 ft 481 kts 123°
2026-05-05 02:49 -16.74043 175.60474 34881 ft 481 kts 123°
2026-05-05 02:50 -16.77194 175.66626 34878 ft 481 kts 123°
2026-05-05 02:50 -16.80342 175.72778 34878 ft 481 kts 123°
2026-05-05 02:51 -16.83489 175.78934 34878 ft 481 kts 123°
2026-05-05 02:51 -16.86615 175.85053 34879 ft 482 kts 122°
2026-05-05 02:52 -16.89768 175.91228 34878 ft 483 kts 122°
2026-05-05 02:52 -16.92925 175.97421 34878 ft 483 kts 122°
2026-05-05 02:53 -16.96078 176.03611 34878 ft 483 kts 122°
2026-05-05 02:53 -16.99229 176.09804 34878 ft 483 kts 122°
2026-05-05 02:54 -17.02381 176.15999 34627 ft 488 kts 123°
2026-05-05 02:54 -17.03954 176.19103 34514 ft 477 kts 123°
2026-05-05 02:54 -17.05504 176.22165 33840 ft 480 kts 123°
2026-05-05 02:54 -17.07144 176.25221 32947 ft 481 kts 129°
2026-05-05 02:55 -17.09166 176.27969 32179 ft 474 kts 139°
2026-05-05 02:55 -17.11465 176.30429 31487 ft 472 kts 142°
2026-05-05 02:55 -17.13812 176.32823 30874 ft 470 kts 142°
2026-05-05 02:55 -17.16112 176.35172 30345 ft 467 kts 142°
2026-05-05 02:56 -17.18417 176.37548 29817 ft 464 kts 142°
2026-05-05 02:56 -17.20701 176.39915 29220 ft 460 kts 142°
2026-05-05 02:56 -17.22958 176.42266 28629 ft 456 kts 142°
2026-05-05 02:56 -17.25193 176.44590 27884 ft 448 kts 142°
2026-05-05 02:57 -17.27390 176.46864 26812 ft 441 kts 142°
2026-05-05 02:57 -17.29559 176.49088 25728 ft 435 kts 142°
2026-05-05 02:57 -17.31723 176.51284 24708 ft 429 kts 142°
2026-05-05 02:57 -17.33836 176.53402 23736 ft 423 kts 142°
2026-05-05 02:58 -17.35957 176.55504 22662 ft 417 kts 142°
2026-05-05 02:58 -17.38068 176.57565 21557 ft 411 kts 142°
2026-05-05 02:58 -17.40161 176.59575 20490 ft 406 kts 142°
2026-05-05 02:58 -17.42242 176.61536 19455 ft 400 kts 142°
2026-05-05 02:59 -17.44315 176.63450 18448 ft 395 kts 142°
2026-05-05 02:59 -17.46381 176.65320 17344 ft 390 kts 142°
2026-05-05 02:59 -17.48433 176.67154 16264 ft 385 kts 142°
2026-05-05 02:59 -17.50460 176.68955 15225 ft 379 kts 142°
2026-05-05 03:00 -17.52435 176.70707 14236 ft 374 kts 141°
2026-05-05 03:00 -17.54306 176.72587 13208 ft 371 kts 135°
2026-05-05 03:00 -17.56000 176.74595 12177 ft 365 kts 133°
2026-05-05 03:00 -17.57679 176.76577 11428 ft 362 kts 133°
2026-05-05 03:01 -17.59348 176.78531 10959 ft 357 kts 133°
2026-05-05 03:01 -17.60989 176.80446 10607 ft 348 kts 133°
2026-05-05 03:01 -17.62503 176.82364 10426 ft 335 kts 130°
2026-05-05 03:01 -17.63912 176.84250 10253 ft 322 kts 129°
2026-05-05 03:02 -17.65271 176.86065 10094 ft 311 kts 129°
2026-05-05 03:02 -17.66584 176.87817 9905 ft 301 kts 129°
2026-05-05 03:02 -17.67849 176.89503 9600 ft 296 kts 129°
2026-05-05 03:02 -17.69117 176.91194 9232 ft 293 kts 129°
2026-05-05 03:03 -17.70374 176.92864 8849 ft 291 kts 129°
2026-05-05 03:03 -17.71626 176.94526 8474 ft 289 kts 129°
2026-05-05 03:03 -17.72875 176.96175 8093 ft 287 kts 129°
2026-05-05 03:03 -17.74120 176.97799 7750 ft 284 kts 129°
2026-05-05 03:04 -17.75356 176.99402 7408 ft 282 kts 129°
2026-05-05 03:04 -17.76571 177.00972 7061 ft 280 kts 129°
2026-05-05 03:04 -17.77796 177.02546 6700 ft 278 kts 129°
2026-05-05 03:04 -17.79014 177.04104 6382 ft 274 kts 129°
2026-05-05 03:05 -17.80223 177.05640 5981 ft 273 kts 129°
2026-05-05 03:05 -17.81443 177.07175 5569 ft 273 kts 129°
2026-05-05 03:05 -17.82605 177.08735 5210 ft 271 kts 123°
2026-05-05 03:05 -17.83546 177.10438 4848 ft 269 kts 118°
2026-05-05 03:06 -17.84416 177.12166 4491 ft 266 kts 117°
2026-05-05 03:06 -17.85268 177.13876 4147 ft 263 kts 117°
2026-05-05 03:06 -17.86103 177.15544 3807 ft 260 kts 117°
2026-05-05 03:06 -17.86942 177.17222 3439 ft 259 kts 117°
2026-05-05 03:07 -17.87777 177.18892 3098 ft 258 kts 117°
2026-05-05 03:07 -17.88596 177.20533 3009 ft 247 kts 116°
2026-05-05 03:07 -17.89258 177.22135 2998 ft 232 kts 110°
2026-05-05 03:07 -17.89755 177.23704 2982 ft 220 kts 107°
2026-05-05 03:08 -17.90198 177.25198 3002 ft 211 kts 105°
2026-05-05 03:08 -17.90544 177.26684 3003 ft 209 kts 103°
2026-05-05 03:08 -17.90849 177.28173 3004 ft 208 kts 102°
2026-05-05 03:08 -17.91139 177.29642 2988 ft 207 kts 101°
2026-05-05 03:09 -17.90981 177.31121 3007 ft 210 kts 65°
2026-05-05 03:09 -17.90182 177.32389 3024 ft 204 kts 49°
2026-05-05 03:09 -17.89139 177.33330 2912 ft 195 kts 40°
2026-05-05 03:09 -17.88057 177.34175 2669 ft 194 kts 40°
2026-05-05 03:10 -17.86986 177.35047 2381 ft 195 kts 41°
2026-05-05 03:10 -17.85913 177.35923 2106 ft 195 kts 41°
2026-05-05 03:10 -17.84840 177.36791 1849 ft 193 kts 40°
2026-05-05 03:10 -17.83806 177.37627 1625 ft 187 kts 41°
2026-05-05 03:11 -17.82805 177.38440 1370 ft 176 kts 40°
2026-05-05 03:11 -17.81869 177.39195 1153 ft 164 kts 41°
2026-05-05 03:11 -17.80993 177.39905 969 ft 155 kts 41°
2026-05-05 03:11 -17.80163 177.40580 763 ft 146 kts 37°
2026-05-05 03:12 -17.79372 177.41221 584 ft 143 kts 34°
2026-05-05 03:12 -17.78848 177.41646 459 ft 144 kts 33°
2026-05-05 03:12 -17.77782 177.42505 218 ft 144 kts 33°
2026-05-05 03:12 -17.77013 177.43118 42 ft 136 kts 40°
2026-05-05 03:13 -17.76375 177.43637 36 ft 90 kts 37°
2026-05-05 03:13 -17.76011 177.43930 36 ft 54 kts 37°
2026-05-05 03:13 -17.75740 177.44146 35 ft 46 kts 37°
2026-05-05 03:13 -17.75500 177.44340 35 ft 42 kts 36°
2026-05-05 03:14 -17.75351 177.44459 34 ft 39 kts 37°
2026-05-05 03:14 -17.75090 177.44671 35 ft 29 kts 37°
2026-05-05 03:14 -17.75011 177.44764 36 ft 22 kts 76°
2026-05-05 03:14 -17.75032 177.44875 36 ft 15 kts 106°
2026-05-05 03:15 -17.75054 177.44956 36 ft 10 kts 105°
2026-05-05 03:15 -17.75077 177.45046 36 ft 7 kts 105°
2026-05-05 03:15 -17.75104 177.45075 36 ft 5 kts 167°
2026-05-05 03:15 -17.75124 177.45074 36 ft 5 kts 186°
2026-05-05 03:16 -17.75151 177.45067 36 ft 0 kts 194°